Darstellungsparameter: Aktuell verwendete Einstellungen:
Skalierung der Graphiken ... ?
xyx+y,   Skalierungsfaktor:      Skalierung: Modus: x, Faktor: 1
Darstellungszeitraum ... ?
Vom - - bis: - -   Zeitraum: 13.08.2018 - 17.08.2018
Min/Max/Avg-Anzeige ... ?
Zeige MMA aktuell
Zeige MMA Monat
Zeige MMA alles
Zeige --A aktuell
Zeige --A Monat
Zeige --A alles
Keine MMA-Anzeige
MMA:
Keine MMA-Graphiken
MMA-Basis: 13.08.2018 - 17.08.2018
Quicknavigation für Darstellung... ?
Tage:      1T, 2T, 3T, 5T -1T -2T -3T -5T +1T +2T +3T +5T
Wochen: 1W, 2W, 3W -1W -2W -3W +1W +2W +3W
Monate: 1M, 3M, 6M -1M -3M -6M +1M +3M +6M
Jahre:    1J, 3J, 5J, 10J -1J -3J -5J -10J +1J +3J +5J +10J
Nutze für die Darstellung ... ?
Originaldaten oder Mittelwerte auf ...
Stundenbasis Tagesbasis Wochenbasis
Monatsbasis Jahresbasis      Datenbasis: Original-Daten
Darstellen als:
Statistik (Auto) Statistik J:M      Darstellung:
Zur Graphik,    zurück zur Übersicht aller Sensoren.
 
Tabellarische Datenbersicht: ?
 
Sensor: Nr:Datum:Temp:Feuchte:Taupunkt:
Aussen-T/F 1 13-08-2018 00:00:00 16.3 C 72 % 11.25 C
2 13-08-2018 00:05:00 16.1 C 72 % 11.06 C
3 13-08-2018 00:10:00 16 C 73 % 11.17 C
4 13-08-2018 00:15:00 15.8 C 73 % 10.97 C
5 13-08-2018 00:20:00 15.7 C 72 % 10.67 C
6 13-08-2018 00:25:00 15.7 C 74 % 11.08 C
7 13-08-2018 00:30:00 15.6 C 74 % 10.99 C
8 13-08-2018 00:35:00 15.5 C 74 % 10.89 C
9 13-08-2018 00:40:00 15.4 C 74 % 10.79 C
10 13-08-2018 00:45:00 15.3 C 75 % 10.9 C
11 13-08-2018 00:50:00 15.3 C 74 % 10.7 C
12 13-08-2018 00:55:00 15.3 C 74 % 10.7 C
13 13-08-2018 01:00:00 15.3 C 74 % 10.7 C
14 13-08-2018 01:05:00 15.2 C 74 % 10.6 C
15 13-08-2018 01:10:00 15.3 C 74 % 10.7 C
16 13-08-2018 01:15:00 15.3 C 74 % 10.7 C
17 13-08-2018 01:20:00 15.2 C 74 % 10.6 C
18 13-08-2018 01:25:00 15.2 C 75 % 10.8 C
19 13-08-2018 01:30:00 15.1 C 75 % 10.71 C
20 13-08-2018 01:35:00 15 C 75 % 10.61 C
21 13-08-2018 01:40:00 14.9 C 76 % 10.71 C
22 13-08-2018 01:45:00 14.8 C 76 % 10.61 C
23 13-08-2018 01:50:00 14.7 C 76 % 10.52 C
24 13-08-2018 01:55:00 14.7 C 77 % 10.71 C
25 13-08-2018 02:00:00 14.6 C 77 % 10.62 C
Sensor: Nr:Datum:Temp:Feuchte:Taupunkt:
Aussen-T/F 26 13-08-2018 02:05:00 14.5 C 77 % 10.52 C
27 13-08-2018 02:10:00 14.4 C 78 % 10.62 C
28 13-08-2018 02:15:00 14.3 C 78 % 10.52 C
29 13-08-2018 02:20:00 14.2 C 78 % 10.42 C
30 13-08-2018 02:25:00 14.2 C 78 % 10.42 C
31 13-08-2018 02:30:00 14.2 C 78 % 10.42 C
32 13-08-2018 02:35:00 14.2 C 79 % 10.61 C
33 13-08-2018 02:40:00 14.3 C 80 % 10.9 C
34 13-08-2018 02:45:00 14.3 C 79 % 10.71 C
35 13-08-2018 02:50:00 14.3 C 79 % 10.71 C
36 13-08-2018 02:55:00 14.3 C 79 % 10.71 C
37 13-08-2018 03:00:00 14.3 C 79 % 10.71 C
38 13-08-2018 03:05:00 14.2 C 79 % 10.61 C
39 13-08-2018 03:10:00 14.2 C 79 % 10.61 C
40 13-08-2018 03:15:00 14.1 C 79 % 10.52 C
41 13-08-2018 03:20:00 14.1 C 80 % 10.71 C
42 13-08-2018 03:25:00 14 C 80 % 10.61 C
43 13-08-2018 03:30:00 14 C 80 % 10.61 C
44 13-08-2018 03:35:00 14 C 80 % 10.61 C
45 13-08-2018 03:40:00 13.9 C 80 % 10.51 C
46 13-08-2018 03:45:00 13.8 C 80 % 10.41 C
47 13-08-2018 03:50:00 13.8 C 80 % 10.41 C
48 13-08-2018 03:55:00 13.7 C 80 % 10.32 C
49 13-08-2018 04:00:00 13.6 C 81 % 10.4 C
50 13-08-2018 04:05:00 13.6 C 81 % 10.4 C
Sensor: Nr:Datum:Temp:Feuchte:Taupunkt:
Aussen-T/F 51 13-08-2018 04:10:00 13.6 C 81 % 10.4 C
52 13-08-2018 04:15:00 13.5 C 82 % 10.49 C
53 13-08-2018 04:20:00 13.5 C 81 % 10.31 C
54 13-08-2018 04:25:00 13.5 C 82 % 10.49 C
55 13-08-2018 04:30:00 13.5 C 82 % 10.49 C
56 13-08-2018 04:35:00 13.4 C 82 % 10.39 C
57 13-08-2018 04:40:00 13.4 C 82 % 10.39 C
58 13-08-2018 04:45:00 13.4 C 82 % 10.39 C
59 13-08-2018 04:50:00 13.3 C 82 % 10.3 C
60 13-08-2018 04:55:00 13.3 C 82 % 10.3 C
61 13-08-2018 05:00:00 13.2 C 82 % 10.2 C
62 13-08-2018 05:05:00 13.2 C 82 % 10.2 C
63 13-08-2018 05:10:00 13.2 C 83 % 10.38 C
64 13-08-2018 05:15:00 13.2 C 83 % 10.38 C
65 13-08-2018 05:20:00 13.2 C 84 % 10.56 C
66 13-08-2018 05:25:00 13.2 C 84 % 10.56 C
67 13-08-2018 05:30:00 13.2 C 84 % 10.56 C
68 13-08-2018 05:35:00 13.1 C 83 % 10.28 C
69 13-08-2018 05:40:00 13.2 C 84 % 10.56 C
70 13-08-2018 05:45:00 13.3 C 85 % 10.83 C
71 13-08-2018 05:50:00 13.4 C 84 % 10.75 C
72 13-08-2018 05:55:00 13.6 C 84 % 10.95 C
73 13-08-2018 06:00:00 13.8 C 84 % 11.15 C
74 13-08-2018 06:05:00 14.1 C 85 % 11.62 C
75 13-08-2018 06:10:00 14.2 C 86 % 11.89 C
Sensor: Nr:Datum:Temp:Feuchte:Taupunkt:
Aussen-T/F 76 13-08-2018 06:15:00 14.2 C 86 % 11.89 C
77 13-08-2018 06:20:00 14.3 C 87 % 12.17 C
78 13-08-2018 06:25:00 14.3 C 87 % 12.17 C
79 13-08-2018 06:30:00 14.3 C 88 % 12.34 C
80 13-08-2018 06:35:00 14.3 C 88 % 12.34 C
81 13-08-2018 06:40:00 14.3 C 89 % 12.51 C
82 13-08-2018 06:45:00 14.3 C 89 % 12.51 C
83 13-08-2018 06:50:00 14.4 C 90 % 12.78 C
84 13-08-2018 06:55:00 14.5 C 90 % 12.88 C
85 13-08-2018 07:00:00 14.5 C 90 % 12.88 C
86 13-08-2018 07:05:00 14.6 C 90 % 12.98 C
87 13-08-2018 07:10:00 14.6 C 90 % 12.98 C
88 13-08-2018 07:15:00 14.6 C 90 % 12.98 C
89 13-08-2018 07:20:00 14.7 C 91 % 13.25 C
90 13-08-2018 07:25:00 14.7 C 91 % 13.25 C
91 13-08-2018 07:30:00 14.4 C 90 % 12.78 C
92 13-08-2018 07:35:00 14.3 C 90 % 12.68 C
93 13-08-2018 07:40:00 14.3 C 91 % 12.85 C
94 13-08-2018 07:45:00 14.4 C 91 % 12.95 C
95 13-08-2018 07:50:00 14.4 C 91 % 12.95 C
96 13-08-2018 07:55:00 14.5 C 91 % 13.05 C
97 13-08-2018 08:00:00 14.6 C 92 % 13.32 C
98 13-08-2018 08:05:00 14.6 C 92 % 13.32 C
99 13-08-2018 08:10:00 14.6 C 92 % 13.32 C
100 13-08-2018 08:15:00 14.6 C 92 % 13.32 C
Sensor: Nr:Datum:Temp:Feuchte:Taupunkt:
Aussen-T/F 101 13-08-2018 08:20:00 14.6 C 92 % 13.32 C
102 13-08-2018 08:25:00 14.7 C 93 % 13.58 C
103 13-08-2018 08:30:00 14.7 C 93 % 13.58 C
104 13-08-2018 08:35:00 14.8 C 93 % 13.68 C
105 13-08-2018 08:40:00 14.8 C 93 % 13.68 C
106 13-08-2018 08:45:00 14.8 C 93 % 13.68 C
107 13-08-2018 08:50:00 14.8 C 93 % 13.68 C
108 13-08-2018 08:55:00 14.8 C 93 % 13.68 C
109 13-08-2018 09:00:00 15 C 93 % 13.88 C
110 13-08-2018 09:05:00 15.1 C 94 % 14.14 C
111 13-08-2018 09:10:00 15.1 C 93 % 13.98 C
112 13-08-2018 09:15:00 15.1 C 93 % 13.98 C
113 13-08-2018 09:20:00 15.2 C 93 % 14.08 C
114 13-08-2018 09:25:00 15.2 C 94 % 14.24 C
115 13-08-2018 09:30:00 15.3 C 94 % 14.34 C
116 13-08-2018 09:35:00 15.3 C 94 % 14.34 C
117 13-08-2018 09:40:00 15.4 C 94 % 14.44 C
118 13-08-2018 09:45:00 15.5 C 94 % 14.54 C
119 13-08-2018 09:50:00 15.6 C 94 % 14.64 C
120 13-08-2018 09:55:00 15.6 C 94 % 14.64 C
121 13-08-2018 10:00:00 15.7 C 94 % 14.74 C
122 13-08-2018 10:05:00 15.8 C 94 % 14.84 C
123 13-08-2018 10:10:00 15.9 C 94 % 14.94 C
124 13-08-2018 10:15:00 16 C 94 % 15.03 C
125 13-08-2018 10:20:00 16.1 C 94 % 15.13 C
Sensor: Nr:Datum:Temp:Feuchte:Taupunkt:
Aussen-T/F 126 13-08-2018 10:25:00 16.2 C 94 % 15.23 C
127 13-08-2018 10:30:00 16.3 C 94 % 15.33 C
128 13-08-2018 10:35:00 16.3 C 94 % 15.33 C
129 13-08-2018 10:40:00 16.4 C 94 % 15.43 C
130 13-08-2018 10:45:00 16.4 C 94 % 15.43 C
131 13-08-2018 10:50:00 16.4 C 94 % 15.43 C
132 13-08-2018 10:55:00 16.5 C 94 % 15.53 C
133 13-08-2018 11:00:00 16.6 C 94 % 15.63 C
134 13-08-2018 11:05:00 16.6 C 94 % 15.63 C
135 13-08-2018 11:10:00 16.7 C 94 % 15.73 C
136 13-08-2018 11:15:00 16.8 C 95 % 15.99 C
137 13-08-2018 11:20:00 16.9 C 95 % 16.09 C
138 13-08-2018 11:25:00 17 C 94 % 16.03 C
139 13-08-2018 11:30:00 17.2 C 95 % 16.39 C
140 13-08-2018 11:35:00 17.3 C 95 % 16.49 C
141 13-08-2018 11:40:00 17.4 C 95 % 16.59 C
142 13-08-2018 11:45:00 17.6 C 95 % 16.79 C
143 13-08-2018 11:50:00 17.8 C 95 % 16.99 C
144 13-08-2018 11:55:00 18 C 95 % 17.19 C
145 13-08-2018 12:00:00 18.2 C 95 % 17.39 C
146 13-08-2018 12:05:00 18.3 C 95 % 17.48 C
147 13-08-2018 12:10:00 18.6 C 94 % 17.62 C
148 13-08-2018 12:15:00 18.8 C 95 % 17.98 C
149 13-08-2018 12:20:00 18.9 C 94 % 17.91 C
150 13-08-2018 12:25:00 19.1 C 94 % 18.11 C
Sensor: Nr:Datum:Temp:Feuchte:Taupunkt:
Aussen-T/F 151 13-08-2018 12:30:00 19.3 C 94 % 18.31 C
152 13-08-2018 12:35:00 19.6 C 94 % 18.61 C
153 13-08-2018 12:40:00 19.6 C 94 % 18.61 C
154 13-08-2018 12:45:00 19.6 C 93 % 18.44 C
155 13-08-2018 12:50:00 19.8 C 93 % 18.63 C
156 13-08-2018 12:55:00 19.9 C 93 % 18.73 C
157 13-08-2018 13:00:00 19.9 C 93 % 18.73 C
158 13-08-2018 13:05:00 19.9 C 92 % 18.56 C
159 13-08-2018 13:10:00 19.9 C 92 % 18.56 C
160 13-08-2018 13:15:00 19.9 C 92 % 18.56 C
161 13-08-2018 13:20:00 19.9 C 92 % 18.56 C
162 13-08-2018 13:25:00 19.9 C 91 % 18.39 C
163 13-08-2018 13:30:00 20.1 C 91 % 18.58 C
164 13-08-2018 13:35:00 20 C 88 % 17.95 C
165 13-08-2018 13:40:00 20.2 C 89 % 18.33 C
166 13-08-2018 13:45:00 20.3 C 89 % 18.43 C
167 13-08-2018 13:50:00 20.4 C 88 % 18.34 C
168 13-08-2018 13:55:00 20.7 C 87 % 18.46 C
169 13-08-2018 14:00:00 21 C 87 % 18.75 C
170 13-08-2018 14:05:00 21.3 C 85 % 18.67 C
171 13-08-2018 14:10:00 21.6 C 83 % 18.59 C
172 13-08-2018 14:15:00 21.8 C 81 % 18.39 C
173 13-08-2018 14:20:00 22.1 C 82 % 18.88 C
174 13-08-2018 14:25:00 22.3 C 80 % 18.68 C
175 13-08-2018 14:30:00 22.5 C 74 % 17.63 C
Sensor: Nr:Datum:Temp:Feuchte:Taupunkt:
Aussen-T/F 176 13-08-2018 14:35:00 22.6 C 78 % 18.57 C
177 13-08-2018 14:40:00 22.7 C 74 % 17.83 C
178 13-08-2018 14:45:00 22.8 C 76 % 18.35 C
179 13-08-2018 14:50:00 22.9 C 74 % 18.02 C
180 13-08-2018 14:55:00 23.1 C 69 % 17.1 C
181 13-08-2018 15:00:00 23.2 C 67 % 16.73 C
182 13-08-2018 15:05:00 23.4 C 69 % 17.39 C
183 13-08-2018 15:10:00 23.4 C 66 % 16.69 C
184 13-08-2018 15:15:00 23.4 C 65 % 16.45 C
185 13-08-2018 15:20:00 23.3 C 67 % 16.83 C
186 13-08-2018 15:25:00 23.5 C 66 % 16.78 C
187 13-08-2018 15:30:00 23.5 C 67 % 17.02 C
188 13-08-2018 15:35:00 23.8 C 66 % 17.07 C
189 13-08-2018 15:40:00 24.1 C 62 % 16.37 C
190 13-08-2018 15:45:00 24.2 C 63 % 16.71 C
191 13-08-2018 15:50:00 24.4 C 62 % 16.65 C
192 13-08-2018 15:55:00 24.7 C 61 % 16.67 C
193 13-08-2018 16:00:00 25 C 61 % 16.96 C
194 13-08-2018 16:05:00 25 C 59 % 16.43 C
195 13-08-2018 16:10:00 24.7 C 61 % 16.67 C
196 13-08-2018 16:15:00 24.5 C 62 % 16.74 C
197 13-08-2018 16:20:00 24.6 C 61 % 16.58 C
198 13-08-2018 16:25:00 24.4 C 61 % 16.39 C
199 13-08-2018 16:30:00 24.4 C 63 % 16.9 C
200 13-08-2018 16:35:00 24.9 C 59 % 16.34 C
Sensor: Nr:Datum:Temp:Feuchte:Taupunkt:
Aussen-T/F 201 13-08-2018 16:40:00 24.9 C 58 % 16.07 C
202 13-08-2018 16:45:00 24.7 C 59 % 16.15 C
203 13-08-2018 16:50:00 25 C 59 % 16.43 C
204 13-08-2018 16:55:00 25.3 C 58 % 16.44 C
205 13-08-2018 17:00:00 25.4 C 58 % 16.54 C
206 13-08-2018 17:05:00 25.6 C 61 % 17.52 C
207 13-08-2018 17:10:00 25.6 C 54 % 15.6 C
208 13-08-2018 17:15:00 25.4 C 57 % 16.26 C
209 13-08-2018 17:20:00 25.7 C 56 % 16.26 C
210 13-08-2018 17:25:00 25.8 C 56 % 16.36 C
211 13-08-2018 17:30:00 25.6 C 55 % 15.89 C
212 13-08-2018 17:35:00 25.2 C 56 % 15.8 C
213 13-08-2018 17:40:00 24.8 C 57 % 15.7 C
214 13-08-2018 17:45:00 24.8 C 56 % 15.43 C
215 13-08-2018 17:50:00 25.1 C 56 % 15.71 C
216 13-08-2018 17:55:00 25.2 C 56 % 15.8 C
217 13-08-2018 18:00:00 25.3 C 56 % 15.89 C
218 13-08-2018 18:05:00 25.6 C 55 % 15.89 C
219 13-08-2018 18:10:00 25.4 C 55 % 15.7 C
220 13-08-2018 18:15:00 24.9 C 56 % 15.52 C
221 13-08-2018 18:20:00 24.3 C 58 % 15.51 C
222 13-08-2018 18:25:00 23.9 C 58 % 15.14 C
223 13-08-2018 18:30:00 23.3 C 60 % 15.1 C
224 13-08-2018 18:35:00 22.7 C 62 % 15.05 C
225 13-08-2018 18:40:00 22.3 C 63 % 14.92 C
Sensor: Nr:Datum:Temp:Feuchte:Taupunkt:
Aussen-T/F 226 13-08-2018 18:45:00 22 C 64 % 14.88 C
227 13-08-2018 18:50:00 21.8 C 66 % 15.17 C
228 13-08-2018 18:55:00 21.4 C 69 % 15.48 C
229 13-08-2018 19:00:00 20.8 C 75 % 16.21 C
230 13-08-2018 19:05:00 20.3 C 78 % 16.34 C
231 13-08-2018 19:10:00 19.9 C 80 % 16.35 C
232 13-08-2018 19:15:00 19.6 C 82 % 16.44 C
233 13-08-2018 19:20:00 19.4 C 83 % 16.44 C
234 13-08-2018 19:25:00 19.2 C 83 % 16.24 C
235 13-08-2018 19:30:00 19.1 C 85 % 16.52 C
236 13-08-2018 19:35:00 19.1 C 85 % 16.52 C
237 13-08-2018 19:40:00 19.3 C 84 % 16.53 C
238 13-08-2018 19:45:00 19.4 C 83 % 16.44 C
239 13-08-2018 19:50:00 19.6 C 83 % 16.63 C
240 13-08-2018 19:55:00 19.6 C 83 % 16.63 C
241 13-08-2018 20:00:00 19.5 C 82 % 16.35 C
242 13-08-2018 20:05:00 19.3 C 83 % 16.34 C
243 13-08-2018 20:10:00 19.1 C 82 % 15.96 C
244 13-08-2018 20:15:00 18.8 C 83 % 15.85 C
245 13-08-2018 20:20:00 18.7 C 84 % 15.94 C
246 13-08-2018 20:25:00 18.6 C 84 % 15.84 C
247 13-08-2018 20:30:00 18.5 C 85 % 15.93 C
248 13-08-2018 20:35:00 18.4 C 85 % 15.83 C
249 13-08-2018 20:40:00 18.3 C 85 % 15.74 C
250 13-08-2018 20:45:00 18.2 C 85 % 15.64 C
Sensor: Nr:Datum:Temp:Feuchte:Taupunkt:
Aussen-T/F 251 13-08-2018 20:50:00 18.1 C 85 % 15.54 C
252 13-08-2018 20:55:00 17.9 C 86 % 15.53 C
253 13-08-2018 21:00:00 17.8 C 86 % 15.43 C
254 13-08-2018 21:05:00 17.7 C 86 % 15.33 C
255 13-08-2018 21:10:00 17.6 C 87 % 15.41 C
256 13-08-2018 21:15:00 17.4 C 87 % 15.21 C
257 13-08-2018 21:20:00 17.3 C 88 % 15.29 C
258 13-08-2018 21:25:00 17.2 C 88 % 15.2 C
259 13-08-2018 21:30:00 17.2 C 88 % 15.2 C
260 13-08-2018 21:35:00 17.1 C 88 % 15.1 C
261 13-08-2018 21:40:00 16.9 C 88 % 14.9 C
262 13-08-2018 21:45:00 16.8 C 89 % 14.98 C
263 13-08-2018 21:50:00 16.8 C 89 % 14.98 C
264 13-08-2018 21:55:00 16.7 C 89 % 14.88 C
265 13-08-2018 22:00:00 16.6 C 89 % 14.78 C
266 13-08-2018 22:05:00 16.6 C 90 % 14.95 C
267 13-08-2018 22:10:00 16.5 C 90 % 14.85 C
268 13-08-2018 22:15:00 16.4 C 90 % 14.76 C
269 13-08-2018 22:20:00 16.4 C 90 % 14.76 C
270 13-08-2018 22:25:00 16.4 C 91 % 14.93 C
271 13-08-2018 22:30:00 16.3 C 91 % 14.83 C
272 13-08-2018 22:35:00 16.3 C 91 % 14.83 C
273 13-08-2018 22:40:00 16.3 C 91 % 14.83 C
274 13-08-2018 22:45:00 16.3 C 91 % 14.83 C
275 13-08-2018 22:50:00 16.3 C 91 % 14.83 C
Sensor: Nr:Datum:Temp:Feuchte:Taupunkt:
Aussen-T/F 276 13-08-2018 22:55:00 16.2 C 91 % 14.73 C
277 13-08-2018 23:00:00 16.2 C 91 % 14.73 C
278 13-08-2018 23:05:00 16.1 C 92 % 14.8 C
279 13-08-2018 23:10:00 16.1 C 92 % 14.8 C
280 13-08-2018 23:15:00 16.1 C 92 % 14.8 C
281 13-08-2018 23:20:00 16 C 92 % 14.7 C
282 13-08-2018 23:25:00 16 C 92 % 14.7 C
283 13-08-2018 23:30:00 15.9 C 92 % 14.6 C
284 13-08-2018 23:35:00 15.9 C 92 % 14.6 C
285 13-08-2018 23:40:00 15.9 C 92 % 14.6 C
286 13-08-2018 23:45:00 15.9 C 92 % 14.6 C
287 13-08-2018 23:50:00 15.8 C 92 % 14.5 C
288 13-08-2018 23:55:00 15.8 C 92 % 14.5 C
289 14-08-2018 00:00:00 15.8 C 92 % 14.5 C
290 14-08-2018 00:05:00 15.8 C 93 % 14.67 C
291 14-08-2018 00:10:00 15.8 C 93 % 14.67 C
292 14-08-2018 00:15:00 15.8 C 93 % 14.67 C
293 14-08-2018 00:20:00 15.9 C 93 % 14.77 C
294 14-08-2018 00:25:00 15.9 C 93 % 14.77 C
295 14-08-2018 00:30:00 15.9 C 93 % 14.77 C
296 14-08-2018 00:35:00 15.9 C 93 % 14.77 C
297 14-08-2018 00:40:00 15.9 C 93 % 14.77 C
298 14-08-2018 00:45:00 16 C 93 % 14.87 C
299 14-08-2018 00:50:00 16 C 93 % 14.87 C
300 14-08-2018 00:55:00 16 C 93 % 14.87 C
Sensor: Nr:Datum:Temp:Feuchte:Taupunkt:
Aussen-T/F 301 14-08-2018 01:00:00 15.9 C 93 % 14.77 C
302 14-08-2018 01:05:00 15.9 C 93 % 14.77 C
303 14-08-2018 01:10:00 15.9 C 93 % 14.77 C
304 14-08-2018 01:15:00 15.9 C 93 % 14.77 C
305 14-08-2018 01:20:00 16 C 94 % 15.03 C
306 14-08-2018 01:25:00 16.1 C 94 % 15.13 C
307 14-08-2018 01:30:00 16.1 C 94 % 15.13 C
308 14-08-2018 01:35:00 16.2 C 94 % 15.23 C
309 14-08-2018 01:40:00 16.2 C 94 % 15.23 C
310 14-08-2018 01:45:00 16.2 C 94 % 15.23 C
311 14-08-2018 01:50:00 16.3 C 94 % 15.33 C
312 14-08-2018 01:55:00 16.3 C 94 % 15.33 C
313 14-08-2018 02:00:00 16.3 C 94 % 15.33 C
314 14-08-2018 02:05:00 16.3 C 94 % 15.33 C
315 14-08-2018 02:10:00 16.3 C 94 % 15.33 C
316 14-08-2018 02:15:00 16.3 C 93 % 15.17 C
317 14-08-2018 02:20:00 16.3 C 93 % 15.17 C
318 14-08-2018 02:25:00 16.2 C 93 % 15.07 C
319 14-08-2018 02:30:00 16.2 C 93 % 15.07 C
320 14-08-2018 02:35:00 16.1 C 93 % 14.97 C
321 14-08-2018 02:40:00 16.1 C 93 % 14.97 C
322 14-08-2018 02:45:00 16 C 93 % 14.87 C
323 14-08-2018 02:50:00 16 C 93 % 14.87 C
324 14-08-2018 02:55:00 16.1 C 93 % 14.97 C
325 14-08-2018 03:00:00 16.1 C 93 % 14.97 C
Sensor: Nr:Datum:Temp:Feuchte:Taupunkt:
Aussen-T/F 326 14-08-2018 03:05:00 16.1 C 93 % 14.97 C
327 14-08-2018 03:10:00 16.1 C 93 % 14.97 C
328 14-08-2018 03:15:00 16.1 C 93 % 14.97 C
329 14-08-2018 03:20:00 16.2 C 93 % 15.07 C
330 14-08-2018 03:25:00 16.2 C 93 % 15.07 C
331 14-08-2018 03:30:00 16.2 C 93 % 15.07 C
332 14-08-2018 03:35:00 16.2 C 93 % 15.07 C
333 14-08-2018 03:40:00 16.2 C 93 % 15.07 C
334 14-08-2018 03:45:00 16.3 C 93 % 15.17 C
335 14-08-2018 03:50:00 16.3 C 93 % 15.17 C
336 14-08-2018 03:55:00 16.3 C 93 % 15.17 C
337 14-08-2018 04:00:00 16.3 C 93 % 15.17 C
338 14-08-2018 04:05:00 16.3 C 93 % 15.17 C
339 14-08-2018 04:10:00 16.2 C 93 % 15.07 C
340 14-08-2018 04:15:00 16.2 C 93 % 15.07 C
341 14-08-2018 04:20:00 16.2 C 93 % 15.07 C
342 14-08-2018 04:25:00 16.2 C 93 % 15.07 C
343 14-08-2018 04:30:00 16.2 C 93 % 15.07 C
344 14-08-2018 04:35:00 16.2 C 93 % 15.07 C
345 14-08-2018 04:40:00 16.1 C 92 % 14.8 C
346 14-08-2018 04:45:00 16.1 C 92 % 14.8 C
347 14-08-2018 04:50:00 16.1 C 92 % 14.8 C
348 14-08-2018 04:55:00 16.1 C 92 % 14.8 C
349 14-08-2018 05:00:00 16.1 C 92 % 14.8 C
350 14-08-2018 05:05:00 16.1 C 92 % 14.8 C
Sensor: Nr:Datum:Temp:Feuchte:Taupunkt:
Aussen-T/F 351 14-08-2018 05:10:00 16.1 C 92 % 14.8 C
352 14-08-2018 05:15:00 16 C 92 % 14.7 C
353 14-08-2018 05:20:00 15.9 C 92 % 14.6 C
354 14-08-2018 05:25:00 15.9 C 91 % 14.43 C
355 14-08-2018 05:30:00 15.9 C 91 % 14.43 C
356 14-08-2018 05:35:00 15.9 C 91 % 14.43 C
357 14-08-2018 05:40:00 15.9 C 91 % 14.43 C
358 14-08-2018 05:45:00 16 C 91 % 14.53 C
359 14-08-2018 05:50:00 16.1 C 91 % 14.63 C
360 14-08-2018 05:55:00 16.1 C 91 % 14.63 C
361 14-08-2018 06:00:00 16.2 C 90 % 14.56 C
362 14-08-2018 06:05:00 16.2 C 90 % 14.56 C
363 14-08-2018 06:10:00 16.3 C 90 % 14.66 C
364 14-08-2018 06:15:00 16.3 C 89 % 14.48 C
365 14-08-2018 06:20:00 16.4 C 89 % 14.58 C
366 14-08-2018 06:25:00 16.4 C 89 % 14.58 C
367 14-08-2018 06:30:00 16.4 C 89 % 14.58 C
368 14-08-2018 06:35:00 16.5 C 89 % 14.68 C
369 14-08-2018 06:40:00 16.6 C 88 % 14.6 C
370 14-08-2018 06:45:00 16.6 C 88 % 14.6 C
371 14-08-2018 06:50:00 16.7 C 88 % 14.7 C
372 14-08-2018 06:55:00 16.7 C 88 % 14.7 C
373 14-08-2018 07:00:00 16.7 C 88 % 14.7 C
374 14-08-2018 07:05:00 16.8 C 88 % 14.8 C
375 14-08-2018 07:10:00 16.8 C 88 % 14.8 C
Sensor: Nr:Datum:Temp:Feuchte:Taupunkt:
Aussen-T/F 376 14-08-2018 07:15:00 16.8 C 88 % 14.8 C
377 14-08-2018 07:20:00 16.8 C 88 % 14.8 C
378 14-08-2018 07:25:00 16.9 C 88 % 14.9 C
379 14-08-2018 07:30:00 16.9 C 88 % 14.9 C
380 14-08-2018 07:35:00 17 C 88 % 15 C
381 14-08-2018 07:40:00 16.9 C 88 % 14.9 C
382 14-08-2018 07:45:00 16.9 C 87 % 14.72 C
383 14-08-2018 07:50:00 17 C 87 % 14.82 C
384 14-08-2018 07:55:00 17.1 C 87 % 14.92 C
385 14-08-2018 08:00:00 17.2 C 87 % 15.02 C
386 14-08-2018 08:05:00 17.3 C 86 % 14.94 C
387 14-08-2018 08:10:00 17.5 C 86 % 15.13 C
388 14-08-2018 08:15:00 17.6 C 85 % 15.05 C
389 14-08-2018 08:20:00 17.7 C 85 % 15.15 C
390 14-08-2018 08:25:00 17.8 C 85 % 15.25 C
391 14-08-2018 08:30:00 17.8 C 85 % 15.25 C
392 14-08-2018 08:35:00 17.8 C 85 % 15.25 C
393 14-08-2018 08:40:00 17.9 C 85 % 15.34 C
394 14-08-2018 08:45:00 17.9 C 84 % 15.16 C
395 14-08-2018 08:50:00 17.9 C 84 % 15.16 C
396 14-08-2018 08:55:00 18 C 84 % 15.26 C
397 14-08-2018 09:00:00 18.1 C 83 % 15.17 C
398 14-08-2018 09:05:00 18.1 C 83 % 15.17 C
399 14-08-2018 09:10:00 18.2 C 83 % 15.27 C
400 14-08-2018 09:15:00 18.2 C 83 % 15.27 C
Sensor: Nr:Datum:Temp:Feuchte:Taupunkt:
Aussen-T/F 401 14-08-2018 09:20:00 18.3 C 83 % 15.36 C
402 14-08-2018 09:25:00 18.4 C 83 % 15.46 C
403 14-08-2018 09:30:00 18.5 C 82 % 15.37 C
404 14-08-2018 09:35:00 18.6 C 82 % 15.47 C
405 14-08-2018 09:40:00 18.8 C 83 % 15.85 C
406 14-08-2018 09:45:00 18.8 C 82 % 15.66 C
407 14-08-2018 09:50:00 18.8 C 82 % 15.66 C
408 14-08-2018 09:55:00 18.9 C 82 % 15.76 C
409 14-08-2018 10:00:00 18.9 C 81 % 15.57 C
410 14-08-2018 10:05:00 18.9 C 82 % 15.76 C
411 14-08-2018 10:10:00 18.9 C 81 % 15.57 C
412 14-08-2018 10:15:00 18.8 C 81 % 15.47 C
413 14-08-2018 10:20:00 18.8 C 82 % 15.66 C
414 14-08-2018 10:25:00 18.8 C 82 % 15.66 C
415 14-08-2018 10:30:00 18.7 C 82 % 15.57 C
416 14-08-2018 10:35:00 18.7 C 82 % 15.57 C
417 14-08-2018 10:40:00 18.8 C 82 % 15.66 C
418 14-08-2018 10:45:00 18.8 C 83 % 15.85 C
419 14-08-2018 10:50:00 18.9 C 82 % 15.76 C
420 14-08-2018 10:55:00 19.2 C 82 % 16.05 C
421 14-08-2018 11:00:00 19.4 C 81 % 16.06 C
422 14-08-2018 11:05:00 19.6 C 81 % 16.25 C
423 14-08-2018 11:10:00 19.8 C 80 % 16.25 C
424 14-08-2018 11:15:00 19.9 C 81 % 16.54 C
425 14-08-2018 11:20:00 20.1 C 80 % 16.54 C
Sensor: Nr:Datum:Temp:Feuchte:Taupunkt:
Aussen-T/F 426 14-08-2018 11:25:00 20.1 C 79 % 16.34 C
427 14-08-2018 11:30:00 20 C 79 % 16.25 C
428 14-08-2018 11:35:00 20 C 80 % 16.44 C
429 14-08-2018 11:40:00 20.1 C 80 % 16.54 C
430 14-08-2018 11:45:00 20.2 C 79 % 16.44 C
431 14-08-2018 11:50:00 20.2 C 79 % 16.44 C
432 14-08-2018 11:55:00 20.2 C 80 % 16.64 C
433 14-08-2018 12:00:00 20.3 C 79 % 16.54 C
434 14-08-2018 12:05:00 20.3 C 79 % 16.54 C
435 14-08-2018 12:10:00 20.3 C 80 % 16.74 C
436 14-08-2018 12:15:00 20.4 C 79 % 16.64 C
437 14-08-2018 12:20:00 20.7 C 78 % 16.73 C
438 14-08-2018 12:25:00 20.8 C 77 % 16.62 C
439 14-08-2018 12:30:00 21 C 77 % 16.81 C
440 14-08-2018 12:35:00 21.1 C 77 % 16.91 C
441 14-08-2018 12:40:00 21.1 C 76 % 16.7 C
442 14-08-2018 12:45:00 20.8 C 76 % 16.41 C
443 14-08-2018 12:50:00 20.7 C 77 % 16.52 C
444 14-08-2018 12:55:00 20.6 C 78 % 16.63 C
445 14-08-2018 13:00:00 20.5 C 79 % 16.73 C
446 14-08-2018 13:05:00 20.4 C 81 % 17.03 C
447 14-08-2018 13:10:00 20.4 C 81 % 17.03 C
448 14-08-2018 13:15:00 20.6 C 81 % 17.22 C
449 14-08-2018 13:20:00 20.9 C 79 % 17.12 C
450 14-08-2018 13:25:00 21.3 C 77 % 17.1 C
Sensor: Nr:Datum:Temp:Feuchte:Taupunkt:
Aussen-T/F 451 14-08-2018 13:30:00 21.6 C 75 % 16.98 C
452 14-08-2018 13:35:00 21.8 C 74 % 16.96 C
453 14-08-2018 13:40:00 21.7 C 75 % 17.07 C
454 14-08-2018 13:45:00 21.8 C 74 % 16.96 C
455 14-08-2018 13:50:00 21.8 C 73 % 16.75 C
456 14-08-2018 13:55:00 21.8 C 73 % 16.75 C
457 14-08-2018 14:00:00 21.7 C 73 % 16.65 C
458 14-08-2018 14:05:00 21.5 C 75 % 16.88 C
459 14-08-2018 14:10:00 21.4 C 75 % 16.79 C
460 14-08-2018 14:15:00 21.3 C 75 % 16.69 C
461 14-08-2018 14:20:00 21.3 C 76 % 16.9 C
462 14-08-2018 14:25:00 21.3 C 76 % 16.9 C
463 14-08-2018 14:30:00 21.3 C 75 % 16.69 C
464 14-08-2018 14:35:00 21.3 C 73 % 16.26 C
465 14-08-2018 14:40:00 21.3 C 75 % 16.69 C
466 14-08-2018 14:45:00 21.5 C 75 % 16.88 C
467 14-08-2018 14:50:00 21.6 C 74 % 16.77 C
468 14-08-2018 14:55:00 21.7 C 75 % 17.07 C
469 14-08-2018 15:00:00 21.7 C 77 % 17.49 C
470 14-08-2018 15:05:00 21.7 C 77 % 17.49 C
471 14-08-2018 15:10:00 21.6 C 75 % 16.98 C
472 14-08-2018 15:15:00 21.6 C 76 % 17.19 C
473 14-08-2018 15:20:00 21.7 C 75 % 17.07 C
474 14-08-2018 15:25:00 21.8 C 73 % 16.75 C
475 14-08-2018 15:30:00 21.9 C 73 % 16.84 C
Sensor: Nr:Datum:Temp:Feuchte:Taupunkt:
Aussen-T/F 476 14-08-2018 15:35:00 22 C 74 % 17.15 C
477 14-08-2018 15:40:00 22.1 C 73 % 17.03 C
478 14-08-2018 15:45:00 22.3 C 70 % 16.56 C
479 14-08-2018 15:50:00 22.5 C 67 % 16.07 C
480 14-08-2018 15:55:00 22.6 C 66 % 15.93 C
481 14-08-2018 16:00:00 22.7 C 66 % 16.02 C
482 14-08-2018 16:05:00 22.7 C 67 % 16.26 C
483 14-08-2018 16:10:00 22.7 C 64 % 15.54 C
484 14-08-2018 16:15:00 22.8 C 66 % 16.12 C
485 14-08-2018 16:20:00 23.1 C 65 % 16.16 C
486 14-08-2018 16:25:00 23.3 C 64 % 16.11 C
487 14-08-2018 16:30:00 23.3 C 64 % 16.11 C
488 14-08-2018 16:35:00 23.3 C 64 % 16.11 C
489 14-08-2018 16:40:00 23.4 C 62 % 15.71 C
490 14-08-2018 16:45:00 23.4 C 66 % 16.69 C
491 14-08-2018 16:50:00 23.3 C 65 % 16.35 C
492 14-08-2018 16:55:00 23.2 C 64 % 16.01 C
493 14-08-2018 17:00:00 23.1 C 65 % 16.16 C
494 14-08-2018 17:05:00 23.1 C 65 % 16.16 C
495 14-08-2018 17:10:00 23.1 C 65 % 16.16 C
496 14-08-2018 17:15:00 23.2 C 65 % 16.26 C
497 14-08-2018 17:20:00 23.2 C 66 % 16.5 C
498 14-08-2018 17:25:00 23.2 C 70 % 17.42 C
499 14-08-2018 17:30:00 23.1 C 67 % 16.64 C
500 14-08-2018 17:35:00 22.9 C 69 % 16.91 C
Sensor: Nr:Datum:Temp:Feuchte:Taupunkt:
Aussen-T/F 501 14-08-2018 17:40:00 22.8 C 69 % 16.82 C
502 14-08-2018 17:45:00 22.7 C 71 % 17.17 C
503 14-08-2018 17:50:00 22.6 C 67 % 16.16 C
504 14-08-2018 17:55:00 22.6 C 67 % 16.16 C
505 14-08-2018 18:00:00 22.6 C 67 % 16.16 C
506 14-08-2018 18:05:00 22.6 C 68 % 16.39 C
507 14-08-2018 18:10:00 22.3 C 71 % 16.79 C
508 14-08-2018 18:15:00 21.9 C 75 % 17.27 C
509 14-08-2018 18:20:00 21.4 C 79 % 17.61 C
510 14-08-2018 18:25:00 20.9 C 82 % 17.71 C
511 14-08-2018 18:30:00 20.6 C 83 % 17.61 C
512 14-08-2018 18:35:00 20.1 C 83 % 17.12 C
513 14-08-2018 18:40:00 19.7 C 84 % 16.92 C
514 14-08-2018 18:45:00 19.4 C 85 % 16.81 C
515 14-08-2018 18:50:00 19.2 C 85 % 16.62 C
516 14-08-2018 18:55:00 19.1 C 86 % 16.7 C
517 14-08-2018 19:00:00 18.9 C 87 % 16.69 C
518 14-08-2018 19:05:00 18.8 C 88 % 16.77 C
519 14-08-2018 19:10:00 18.7 C 88 % 16.67 C
520 14-08-2018 19:15:00 18.7 C 88 % 16.67 C
521 14-08-2018 19:20:00 18.6 C 89 % 16.75 C
522 14-08-2018 19:25:00 18.4 C 89 % 16.55 C
523 14-08-2018 19:30:00 18.4 C 89 % 16.55 C
524 14-08-2018 19:35:00 18.3 C 89 % 16.46 C
525 14-08-2018 19:40:00 18.3 C 90 % 16.63 C
Sensor: Nr:Datum:Temp:Feuchte:Taupunkt:
Aussen-T/F 526 14-08-2018 19:45:00 18.2 C 90 % 16.53 C
527 14-08-2018 19:50:00 18.2 C 90 % 16.53 C
528 14-08-2018 19:55:00 18.2 C 90 % 16.53 C
529 14-08-2018 20:00:00 18.1 C 90 % 16.43 C
530 14-08-2018 20:05:00 18.1 C 90 % 16.43 C
531 14-08-2018 20:10:00 18 C 90 % 16.34 C
532 14-08-2018 20:15:00 18.1 C 91 % 16.61 C
533 14-08-2018 20:20:00 18.1 C 91 % 16.61 C
534 14-08-2018 20:25:00 18.2 C 91 % 16.71 C
535 14-08-2018 20:30:00 18.1 C 90 % 16.43 C
536 14-08-2018 20:35:00 18.1 C 90 % 16.43 C
537 14-08-2018 20:40:00 18 C 90 % 16.34 C
538 14-08-2018 20:45:00 17.9 C 90 % 16.24 C
539 14-08-2018 20:50:00 17.8 C 90 % 16.14 C
540 14-08-2018 20:55:00 17.7 C 90 % 16.04 C
541 14-08-2018 21:00:00 17.6 C 90 % 15.94 C
542 14-08-2018 21:05:00 17.6 C 90 % 15.94 C
543 14-08-2018 21:10:00 17.5 C 91 % 16.01 C
544 14-08-2018 21:15:00 17.4 C 91 % 15.92 C
545 14-08-2018 21:20:00 17.3 C 91 % 15.82 C
546 14-08-2018 21:25:00 17.3 C 91 % 15.82 C
547 14-08-2018 21:30:00 17.2 C 91 % 15.72 C
548 14-08-2018 21:35:00 17.1 C 91 % 15.62 C
549 14-08-2018 21:40:00 17.1 C 91 % 15.62 C
550 14-08-2018 21:45:00 17 C 91 % 15.52 C
Sensor: Nr:Datum:Temp:Feuchte:Taupunkt:
Aussen-T/F 551 14-08-2018 21:50:00 16.9 C 91 % 15.42 C
552 14-08-2018 21:55:00 16.9 C 91 % 15.42 C
553 14-08-2018 22:00:00 16.9 C 92 % 15.59 C
554 14-08-2018 22:05:00 16.9 C 92 % 15.59 C
555 14-08-2018 22:10:00 16.9 C 92 % 15.59 C
556 14-08-2018 22:15:00 16.9 C 92 % 15.59 C
557 14-08-2018 22:20:00 16.9 C 92 % 15.59 C
558 14-08-2018 22:25:00 16.9 C 92 % 15.59 C
559 14-08-2018 22:30:00 16.9 C 93 % 15.76 C
560 14-08-2018 22:35:00 17 C 93 % 15.86 C
561 14-08-2018 22:40:00 17 C 93 % 15.86 C
562 14-08-2018 22:45:00 17.1 C 93 % 15.96 C
563 14-08-2018 22:50:00 17.1 C 93 % 15.96 C
564 14-08-2018 22:55:00 17.1 C 93 % 15.96 C
565 14-08-2018 23:00:00 17.1 C 93 % 15.96 C
566 14-08-2018 23:05:00 17.2 C 93 % 16.06 C
567 14-08-2018 23:10:00 17.2 C 93 % 16.06 C
568 14-08-2018 23:15:00 17.2 C 93 % 16.06 C
569 14-08-2018 23:20:00 17.2 C 93 % 16.06 C
570 14-08-2018 23:25:00 17.2 C 93 % 16.06 C
571 14-08-2018 23:30:00 17.2 C 93 % 16.06 C
572 14-08-2018 23:35:00 17.3 C 93 % 16.16 C
573 14-08-2018 23:40:00 17.3 C 93 % 16.16 C
574 14-08-2018 23:45:00 17.3 C 93 % 16.16 C
575 14-08-2018 23:50:00 17.3 C 93 % 16.16 C
Sensor: Nr:Datum:Temp:Feuchte:Taupunkt:
Aussen-T/F 576 14-08-2018 23:55:00 17.3 C 93 % 16.16 C
577 15-08-2018 00:00:00 17.3 C 93 % 16.16 C
578 15-08-2018 00:05:00 17.2 C 93 % 16.06 C
579 15-08-2018 00:10:00 17.1 C 93 % 15.96 C
580 15-08-2018 00:15:00 17.1 C 93 % 15.96 C
581 15-08-2018 00:20:00 17 C 93 % 15.86 C
582 15-08-2018 00:25:00 16.9 C 93 % 15.76 C
583 15-08-2018 00:30:00 16.8 C 92 % 15.49 C
584 15-08-2018 00:35:00 16.7 C 92 % 15.39 C
585 15-08-2018 00:40:00 16.6 C 93 % 15.46 C
586 15-08-2018 00:45:00 16.6 C 93 % 15.46 C
587 15-08-2018 00:50:00 16.5 C 93 % 15.36 C
588 15-08-2018 00:55:00 16.5 C 93 % 15.36 C
589 15-08-2018 01:00:00 16.4 C 93 % 15.27 C
590 15-08-2018 01:05:00 16.4 C 93 % 15.27 C
591 15-08-2018 01:10:00 16.4 C 93 % 15.27 C
592 15-08-2018 01:15:00 16.4 C 93 % 15.27 C
593 15-08-2018 01:20:00 16.5 C 93 % 15.36 C
594 15-08-2018 01:25:00 16.6 C 93 % 15.46 C
595 15-08-2018 01:30:00 16.6 C 93 % 15.46 C
596 15-08-2018 01:35:00 16.5 C 93 % 15.36 C
597 15-08-2018 01:40:00 16.4 C 93 % 15.27 C
598 15-08-2018 01:45:00 16.3 C 93 % 15.17 C
599 15-08-2018 01:50:00 16.3 C 93 % 15.17 C
600 15-08-2018 01:55:00 16.2 C 93 % 15.07 C
Sensor: Nr:Datum:Temp:Feuchte:Taupunkt:
Aussen-T/F 601 15-08-2018 02:00:00 16.1 C 93 % 14.97 C
602 15-08-2018 02:05:00 16 C 93 % 14.87 C
603 15-08-2018 02:10:00 15.9 C 93 % 14.77 C
604 15-08-2018 02:15:00 15.9 C 93 % 14.77 C
605 15-08-2018 02:20:00 15.9 C 93 % 14.77 C
606 15-08-2018 02:25:00 15.9 C 94 % 14.94 C
607 15-08-2018 02:30:00 16 C 94 % 15.03 C
608 15-08-2018 02:35:00 16.1 C 94 % 15.13 C
609 15-08-2018 02:40:00 16.2 C 94 % 15.23 C
610 15-08-2018 02:45:00 16.2 C 94 % 15.23 C
611 15-08-2018 02:50:00 16.2 C 94 % 15.23 C
612 15-08-2018 02:55:00 16.2 C 94 % 15.23 C
613 15-08-2018 03:00:00 16.3 C 94 % 15.33 C
614 15-08-2018 03:05:00 16.3 C 94 % 15.33 C
615 15-08-2018 03:10:00 16.4 C 94 % 15.43 C
616 15-08-2018 03:15:00 16.3 C 94 % 15.33 C
617 15-08-2018 03:20:00 16.2 C 93 % 15.07 C
618 15-08-2018 03:25:00 16.1 C 93 % 14.97 C
619 15-08-2018 03:30:00 15.9 C 93 % 14.77 C
620 15-08-2018 03:35:00 15.7 C 93 % 14.57 C
621 15-08-2018 03:40:00 15.7 C 93 % 14.57 C
622 15-08-2018 03:45:00 15.7 C 94 % 14.74 C
623 15-08-2018 03:50:00 15.7 C 94 % 14.74 C
624 15-08-2018 03:55:00 15.6 C 94 % 14.64 C
625 15-08-2018 04:00:00 15.6 C 94 % 14.64 C
Sensor: Nr:Datum:Temp:Feuchte:Taupunkt:
Aussen-T/F 626 15-08-2018 04:05:00 15.6 C 94 % 14.64 C
627 15-08-2018 04:10:00 15.6 C 94 % 14.64 C
628 15-08-2018 04:15:00 15.6 C 94 % 14.64 C
629 15-08-2018 04:20:00 15.7 C 94 % 14.74 C
630 15-08-2018 04:25:00 15.7 C 94 % 14.74 C
631 15-08-2018 04:30:00 15.8 C 94 % 14.84 C
632 15-08-2018 04:35:00 15.9 C 94 % 14.94 C
633 15-08-2018 04:40:00 15.9 C 94 % 14.94 C
634 15-08-2018 04:45:00 16 C 94 % 15.03 C
635 15-08-2018 04:50:00 16.1 C 94 % 15.13 C
636 15-08-2018 04:55:00 16.1 C 94 % 15.13 C
637 15-08-2018 05:00:00 16.1 C 94 % 15.13 C
638 15-08-2018 05:05:00 16 C 94 % 15.03 C
639 15-08-2018 05:10:00 16 C 94 % 15.03 C
640 15-08-2018 05:15:00 15.9 C 94 % 14.94 C
641 15-08-2018 05:20:00 15.9 C 94 % 14.94 C
642 15-08-2018 05:25:00 15.9 C 94 % 14.94 C
643 15-08-2018 05:30:00 15.9 C 94 % 14.94 C
644 15-08-2018 05:35:00 16 C 94 % 15.03 C
645 15-08-2018 05:40:00 16 C 94 % 15.03 C
646 15-08-2018 05:45:00 16 C 94 % 15.03 C
647 15-08-2018 05:50:00 16.1 C 94 % 15.13 C
648 15-08-2018 05:55:00 16.1 C 94 % 15.13 C
649 15-08-2018 06:00:00 16.1 C 94 % 15.13 C
650 15-08-2018 06:05:00 16.1 C 94 % 15.13 C
Sensor: Nr:Datum:Temp:Feuchte:Taupunkt:
Aussen-T/F 651 15-08-2018 06:10:00 16.1 C 94 % 15.13 C
652 15-08-2018 06:15:00 16.1 C 94 % 15.13 C
653 15-08-2018 06:20:00 16.1 C 94 % 15.13 C
654 15-08-2018 06:25:00 16 C 94 % 15.03 C
655 15-08-2018 06:30:00 16 C 94 % 15.03 C
656 15-08-2018 06:35:00 16.1 C 94 % 15.13 C
657 15-08-2018 06:40:00 16.1 C 94 % 15.13 C
658 15-08-2018 06:45:00 16 C 94 % 15.03 C
659 15-08-2018 06:50:00 16 C 94 % 15.03 C
660 15-08-2018 06:55:00 16.1 C 94 % 15.13 C
661 15-08-2018 07:00:00 16.1 C 94 % 15.13 C
662 15-08-2018 07:05:00 16.1 C 94 % 15.13 C
663 15-08-2018 07:10:00 16.1 C 94 % 15.13 C
664 15-08-2018 07:15:00 16.1 C 94 % 15.13 C
665 15-08-2018 07:20:00 16.1 C 94 % 15.13 C
666 15-08-2018 07:25:00 16.1 C 94 % 15.13 C
667 15-08-2018 07:30:00 16.2 C 94 % 15.23 C
668 15-08-2018 07:35:00 16.2 C 94 % 15.23 C
669 15-08-2018 07:40:00 16.2 C 94 % 15.23 C
670 15-08-2018 07:45:00 16.2 C 94 % 15.23 C
671 15-08-2018 07:50:00 16.2 C 94 % 15.23 C
672 15-08-2018 07:55:00 16.2 C 94 % 15.23 C
673 15-08-2018 08:00:00 16.2 C 94 % 15.23 C
674 15-08-2018 08:05:00 16.3 C 94 % 15.33 C
675 15-08-2018 08:10:00 16.3 C 94 % 15.33 C
Sensor: Nr:Datum:Temp:Feuchte:Taupunkt:
Aussen-T/F 676 15-08-2018 08:15:00 16.4 C 94 % 15.43 C
677 15-08-2018 08:20:00 16.4 C 93 % 15.27 C
678 15-08-2018 08:25:00 16.5 C 93 % 15.36 C
679 15-08-2018 08:30:00 16.6 C 93 % 15.46 C
680 15-08-2018 08:35:00 16.6 C 93 % 15.46 C
681 15-08-2018 08:40:00 16.7 C 93 % 15.56 C
682 15-08-2018 08:45:00 16.8 C 93 % 15.66 C
683 15-08-2018 08:50:00 16.9 C 92 % 15.59 C
684 15-08-2018 08:55:00 17 C 92 % 15.69 C
685 15-08-2018 09:00:00 17.1 C 91 % 15.62 C
686 15-08-2018 09:05:00 17.2 C 91 % 15.72 C
687 15-08-2018 09:10:00 17.3 C 91 % 15.82 C
688 15-08-2018 09:15:00 17.4 C 90 % 15.74 C
689 15-08-2018 09:20:00 17.6 C 90 % 15.94 C
690 15-08-2018 09:25:00 17.7 C 90 % 16.04 C
691 15-08-2018 09:30:00 17.8 C 90 % 16.14 C
692 15-08-2018 09:35:00 17.9 C 88 % 15.88 C
693 15-08-2018 09:40:00 18.1 C 89 % 16.26 C
694 15-08-2018 09:45:00 18.2 C 88 % 16.18 C
695 15-08-2018 09:50:00 18.3 C 87 % 16.1 C
696 15-08-2018 09:55:00 18.4 C 86 % 16.02 C
697 15-08-2018 10:00:00 18.6 C 86 % 16.21 C
698 15-08-2018 10:05:00 18.7 C 84 % 15.94 C
699 15-08-2018 10:10:00 18.7 C 84 % 15.94 C
700 15-08-2018 10:15:00 18.8 C 83 % 15.85 C
Sensor: Nr:Datum:Temp:Feuchte:Taupunkt:
Aussen-T/F 701 15-08-2018 10:20:00 18.8 C 83 % 15.85 C
702 15-08-2018 10:25:00 18.8 C 83 % 15.85 C
703 15-08-2018 10:30:00 18.9 C 83 % 15.95 C
704 15-08-2018 10:35:00 19.1 C 82 % 15.96 C
705 15-08-2018 10:40:00 19.1 C 79 % 15.37 C
706 15-08-2018 10:45:00 19.3 C 79 % 15.57 C
707 15-08-2018 10:50:00 19.4 C 80 % 15.86 C
708 15-08-2018 10:55:00 19.5 C 77 % 15.36 C
709 15-08-2018 11:00:00 19.6 C 77 % 15.46 C
710 15-08-2018 11:05:00 19.5 C 76 % 15.16 C
711 15-08-2018 11:10:00 19.5 C 76 % 15.16 C
712 15-08-2018 11:15:00 19.6 C 75 % 15.05 C
713 15-08-2018 11:20:00 19.6 C 74 % 14.84 C
714 15-08-2018 11:25:00 19.6 C 74 % 14.84 C
715 15-08-2018 11:30:00 19.7 C 74 % 14.94 C
716 15-08-2018 11:35:00 19.8 C 68 % 13.73 C
717 15-08-2018 11:40:00 19.9 C 68 % 13.82 C
718 15-08-2018 11:45:00 20.1 C 69 % 14.24 C
719 15-08-2018 11:50:00 20.3 C 64 % 13.27 C
720 15-08-2018 11:55:00 20.5 C 67 % 14.16 C
721 15-08-2018 12:00:00 20.7 C 69 % 14.81 C
722 15-08-2018 12:05:00 20.8 C 67 % 14.45 C
723 15-08-2018 12:10:00 21 C 67 % 14.64 C
724 15-08-2018 12:15:00 21.2 C 68 % 15.06 C
725 15-08-2018 12:20:00 21.4 C 66 % 14.79 C
Sensor: Nr:Datum:Temp:Feuchte:Taupunkt:
Aussen-T/F 726 15-08-2018 12:25:00 21.5 C 65 % 14.65 C
727 15-08-2018 12:30:00 21.4 C 65 % 14.55 C
728 15-08-2018 12:35:00 21.6 C 66 % 14.98 C
729 15-08-2018 12:40:00 21.7 C 67 % 15.31 C
730 15-08-2018 12:45:00 21.8 C 68 % 15.63 C
731 15-08-2018 12:50:00 21.9 C 66 % 15.26 C
732 15-08-2018 12:55:00 22.1 C 66 % 15.45 C
733 15-08-2018 13:00:00 22.2 C 62 % 14.58 C
734 15-08-2018 13:05:00 22.2 C 62 % 14.58 C
735 15-08-2018 13:10:00 22.2 C 63 % 14.82 C
736 15-08-2018 13:15:00 22.3 C 64 % 15.16 C
737 15-08-2018 13:20:00 22.5 C 64 % 15.35 C
738 15-08-2018 13:25:00 22.6 C 64 % 15.45 C
739 15-08-2018 13:30:00 22.8 C 61 % 14.89 C
740 15-08-2018 13:35:00 22.8 C 61 % 14.89 C
741 15-08-2018 13:40:00 22.8 C 62 % 15.14 C
742 15-08-2018 13:45:00 22.9 C 63 % 15.48 C
743 15-08-2018 13:50:00 23.1 C 60 % 14.91 C
744 15-08-2018 13:55:00 23.1 C 59 % 14.65 C
745 15-08-2018 14:00:00 23 C 59 % 14.56 C
746 15-08-2018 14:05:00 23 C 61 % 15.08 C
747 15-08-2018 14:10:00 22.9 C 60 % 14.73 C
748 15-08-2018 14:15:00 22.9 C 60 % 14.73 C
749 15-08-2018 14:20:00 22.8 C 59 % 14.37 C
750 15-08-2018 14:25:00 22.8 C 59 % 14.37 C
Sensor: Nr:Datum:Temp:Feuchte:Taupunkt:
Aussen-T/F 751 15-08-2018 14:30:00 22.9 C 62 % 15.23 C
752 15-08-2018 14:35:00 23 C 63 % 15.58 C
753 15-08-2018 14:40:00 23.1 C 59 % 14.65 C
754 15-08-2018 14:45:00 23.2 C 59 % 14.75 C
755 15-08-2018 14:50:00 23.3 C 60 % 15.1 C
756 15-08-2018 14:55:00 23.4 C 60 % 15.19 C
757 15-08-2018 15:00:00 23.5 C 58 % 14.76 C
758 15-08-2018 15:05:00 23.4 C 57 % 14.4 C
759 15-08-2018 15:10:00 23.4 C 58 % 14.67 C
760 15-08-2018 15:15:00 23.5 C 59 % 15.03 C
761 15-08-2018 15:20:00 23.6 C 59 % 15.12 C
762 15-08-2018 15:25:00 23.7 C 57 % 14.68 C
763 15-08-2018 15:30:00 23.7 C 57 % 14.68 C
764 15-08-2018 15:35:00 23.8 C 56 % 14.5 C
765 15-08-2018 15:40:00 23.9 C 57 % 14.87 C
766 15-08-2018 15:45:00 23.9 C 56 % 14.59 C
767 15-08-2018 15:50:00 23.9 C 58 % 15.14 C
768 15-08-2018 15:55:00 24.1 C 56 % 14.78 C
769 15-08-2018 16:00:00 24.2 C 55 % 14.59 C
770 15-08-2018 16:05:00 24.2 C 56 % 14.87 C
771 15-08-2018 16:10:00 24.3 C 56 % 14.96 C
772 15-08-2018 16:15:00 24.4 C 56 % 15.06 C
773 15-08-2018 16:20:00 24.6 C 54 % 14.68 C
774 15-08-2018 16:25:00 24.6 C 55 % 14.96 C
775 15-08-2018 16:30:00 24.5 C 55 % 14.87 C
Sensor: Nr:Datum:Temp:Feuchte:Taupunkt:
Aussen-T/F 776 15-08-2018 16:35:00 24.4 C 54 % 14.49 C
777 15-08-2018 16:40:00 24.4 C 56 % 15.06 C
778 15-08-2018 16:45:00 24.3 C 55 % 14.68 C
779 15-08-2018 16:50:00 24.2 C 58 % 15.42 C
780 15-08-2018 16:55:00 24.1 C 56 % 14.78 C
781 15-08-2018 17:00:00 24.1 C 56 % 14.78 C
782 15-08-2018 17:05:00 24 C 56 % 14.68 C
783 15-08-2018 17:10:00 23.9 C 58 % 15.14 C
784 15-08-2018 17:15:00 23.8 C 57 % 14.77 C
785 15-08-2018 17:20:00 23.8 C 57 % 14.77 C
786 15-08-2018 17:25:00 23.8 C 57 % 14.77 C
787 15-08-2018 17:30:00 23.8 C 67 % 17.3 C
788 15-08-2018 17:35:00 23.9 C 69 % 17.87 C
789 15-08-2018 17:40:00 23.8 C 69 % 17.77 C
790 15-08-2018 17:45:00 23.7 C 68 % 17.44 C
791 15-08-2018 17:50:00 23.7 C 69 % 17.67 C
792 15-08-2018 17:55:00 23.5 C 64 % 16.3 C
793 15-08-2018 18:00:00 23.4 C 69 % 17.39 C
794 15-08-2018 18:05:00 23.3 C 70 % 17.52 C
795 15-08-2018 18:10:00 23.2 C 70 % 17.42 C
796 15-08-2018 18:15:00 23.1 C 70 % 17.33 C
797 15-08-2018 18:20:00 22.9 C 71 % 17.36 C
798 15-08-2018 18:25:00 22.9 C 71 % 17.36 C
799 15-08-2018 18:30:00 22.8 C 71 % 17.27 C
800 15-08-2018 18:35:00 22.7 C 71 % 17.17 C
Sensor: Nr:Datum:Temp:Feuchte:Taupunkt:
Aussen-T/F 801 15-08-2018 18:40:00 22.7 C 72 % 17.39 C
802 15-08-2018 18:45:00 22.7 C 71 % 17.17 C
803 15-08-2018 18:50:00 22.7 C 71 % 17.17 C
804 15-08-2018 18:55:00 22.7 C 72 % 17.39 C
805 15-08-2018 19:00:00 22.8 C 72 % 17.49 C
806 15-08-2018 19:05:00 22.8 C 72 % 17.49 C
807 15-08-2018 19:10:00 22.7 C 71 % 17.17 C
808 15-08-2018 19:15:00 22.7 C 72 % 17.39 C
809 15-08-2018 19:20:00 22.6 C 72 % 17.3 C
810 15-08-2018 19:25:00 22.5 C 73 % 17.42 C
811 15-08-2018 19:30:00 22.4 C 73 % 17.32 C
812 15-08-2018 19:35:00 22.3 C 74 % 17.44 C
813 15-08-2018 19:40:00 22.2 C 73 % 17.13 C
814 15-08-2018 19:45:00 22.1 C 72 % 16.82 C
815 15-08-2018 19:50:00 22 C 73 % 16.94 C
816 15-08-2018 19:55:00 21.9 C 73 % 16.84 C
817 15-08-2018 20:00:00 21.8 C 73 % 16.75 C
818 15-08-2018 20:05:00 21.6 C 73 % 16.55 C
819 15-08-2018 20:10:00 21.5 C 74 % 16.67 C
820 15-08-2018 20:15:00 21.4 C 74 % 16.57 C
821 15-08-2018 20:20:00 21.3 C 73 % 16.26 C
822 15-08-2018 20:25:00 21.2 C 74 % 16.38 C
823 15-08-2018 20:30:00 21.1 C 74 % 16.29 C
824 15-08-2018 20:35:00 21 C 74 % 16.19 C
825 15-08-2018 20:40:00 20.9 C 74 % 16.09 C
Sensor: Nr:Datum:Temp:Feuchte:Taupunkt:
Aussen-T/F 826 15-08-2018 20:45:00 20.8 C 73 % 15.78 C
827 15-08-2018 20:50:00 20.8 C 74 % 16 C
828 15-08-2018 20:55:00 20.7 C 74 % 15.9 C
829 15-08-2018 21:00:00 20.6 C 74 % 15.8 C
830 15-08-2018 21:05:00 20.5 C 74 % 15.71 C
831 15-08-2018 21:10:00 20.4 C 75 % 15.82 C
832 15-08-2018 21:15:00 20.4 C 75 % 15.82 C
833 15-08-2018 21:20:00 20.3 C 75 % 15.72 C
834 15-08-2018 21:25:00 20.2 C 76 % 15.83 C
835 15-08-2018 21:30:00 20.2 C 76 % 15.83 C
836 15-08-2018 21:35:00 20.1 C 76 % 15.74 C
837 15-08-2018 21:40:00 20.1 C 77 % 15.94 C
838 15-08-2018 21:45:00 19.9 C 77 % 15.75 C
839 15-08-2018 21:50:00 19.9 C 77 % 15.75 C
840 15-08-2018 21:55:00 19.8 C 78 % 15.85 C
841 15-08-2018 22:00:00 19.8 C 78 % 15.85 C
842 15-08-2018 22:05:00 19.7 C 77 % 15.56 C
843 15-08-2018 22:10:00 19.6 C 78 % 15.66 C
844 15-08-2018 22:15:00 19.6 C 78 % 15.66 C
845 15-08-2018 22:20:00 19.4 C 77 % 15.27 C
846 15-08-2018 22:25:00 19.3 C 78 % 15.37 C
847 15-08-2018 22:30:00 19.2 C 78 % 15.27 C
848 15-08-2018 22:35:00 19.1 C 79 % 15.37 C
849 15-08-2018 22:40:00 19 C 79 % 15.28 C
850 15-08-2018 22:45:00 18.9 C 79 % 15.18 C
Sensor: Nr:Datum:Temp:Feuchte:Taupunkt:
Aussen-T/F 851 15-08-2018 22:50:00 18.8 C 80 % 15.28 C
852 15-08-2018 22:55:00 18.6 C 80 % 15.08 C
853 15-08-2018 23:00:00 18.4 C 80 % 14.89 C
854 15-08-2018 23:05:00 18.3 C 80 % 14.79 C
855 15-08-2018 23:10:00 18.2 C 80 % 14.69 C
856 15-08-2018 23:15:00 18 C 81 % 14.69 C
857 15-08-2018 23:20:00 17.8 C 81 % 14.5 C
858 15-08-2018 23:25:00 17.7 C 81 % 14.4 C
859 15-08-2018 23:30:00 17.6 C 82 % 14.49 C
860 15-08-2018 23:35:00 17.4 C 82 % 14.3 C
861 15-08-2018 23:40:00 17.3 C 83 % 14.39 C
862 15-08-2018 23:45:00 17.3 C 83 % 14.39 C
863 15-08-2018 23:50:00 17.1 C 83 % 14.19 C
864 15-08-2018 23:55:00 17 C 84 % 14.28 C
865 16-08-2018 00:00:00 16.9 C 84 % 14.18 C
866 16-08-2018 00:05:00 16.8 C 84 % 14.08 C
867 16-08-2018 00:10:00 16.7 C 84 % 13.98 C
868 16-08-2018 00:15:00 16.6 C 85 % 14.07 C
869 16-08-2018 00:20:00 16.4 C 85 % 13.87 C
870 16-08-2018 00:25:00 16.3 C 85 % 13.77 C
871 16-08-2018 00:30:00 16.3 C 86 % 13.95 C
872 16-08-2018 00:35:00 16.2 C 86 % 13.86 C
873 16-08-2018 00:40:00 16.1 C 86 % 13.76 C
874 16-08-2018 00:45:00 16 C 86 % 13.66 C
875 16-08-2018 00:50:00 15.9 C 87 % 13.74 C
Sensor: Nr:Datum:Temp:Feuchte:Taupunkt:
Aussen-T/F 876 16-08-2018 00:55:00 15.8 C 87 % 13.64 C
877 16-08-2018 01:00:00 15.8 C 87 % 13.64 C
878 16-08-2018 01:05:00 15.7 C 87 % 13.54 C
879 16-08-2018 01:10:00 15.7 C 87 % 13.54 C
880 16-08-2018 01:15:00 15.6 C 88 % 13.62 C
881 16-08-2018 01:20:00 15.6 C 88 % 13.62 C
882 16-08-2018 01:25:00 15.5 C 88 % 13.52 C
883 16-08-2018 01:30:00 15.4 C 87 % 13.25 C
884 16-08-2018 01:35:00 15.4 C 88 % 13.42 C
885 16-08-2018 01:40:00 15.3 C 88 % 13.33 C
886 16-08-2018 01:45:00 15.3 C 88 % 13.33 C
887 16-08-2018 01:50:00 15.2 C 88 % 13.23 C
888 16-08-2018 01:55:00 15.1 C 88 % 13.13 C
889 16-08-2018 02:00:00 15.1 C 88 % 13.13 C
890 16-08-2018 02:05:00 15 C 89 % 13.2 C
891 16-08-2018 02:10:00 14.9 C 89 % 13.1 C
892 16-08-2018 02:15:00 14.9 C 89 % 13.1 C
893 16-08-2018 02:20:00 14.9 C 89 % 13.1 C
894 16-08-2018 02:25:00 14.9 C 90 % 13.28 C
895 16-08-2018 02:30:00 14.9 C 90 % 13.28 C
896 16-08-2018 02:35:00 14.9 C 89 % 13.1 C
897 16-08-2018 02:40:00 14.8 C 89 % 13.01 C
898 16-08-2018 02:45:00 14.7 C 89 % 12.91 C
899 16-08-2018 02:50:00 14.7 C 90 % 13.08 C
900 16-08-2018 02:55:00 14.7 C 90 % 13.08 C
Sensor: Nr:Datum:Temp:Feuchte:Taupunkt:
Aussen-T/F 901 16-08-2018 03:00:00 14.7 C 90 % 13.08 C
902 16-08-2018 03:05:00 14.6 C 90 % 12.98 C
903 16-08-2018 03:10:00 14.6 C 90 % 12.98 C
904 16-08-2018 03:15:00 14.5 C 90 % 12.88 C
905 16-08-2018 03:20:00 14.4 C 90 % 12.78 C
906 16-08-2018 03:25:00 14.3 C 90 % 12.68 C
907 16-08-2018 03:30:00 14.3 C 90 % 12.68 C
908 16-08-2018 03:35:00 14.2 C 90 % 12.58 C
909 16-08-2018 03:40:00 14.2 C 90 % 12.58 C
910 16-08-2018 03:45:00 14.2 C 91 % 12.75 C
911 16-08-2018 03:50:00 14.1 C 91 % 12.65 C
912 16-08-2018 03:55:00 14.1 C 91 % 12.65 C
913 16-08-2018 04:00:00 14 C 91 % 12.56 C
914 16-08-2018 04:05:00 14 C 91 % 12.56 C
915 16-08-2018 04:10:00 14.1 C 91 % 12.65 C
916 16-08-2018 04:15:00 14.1 C 91 % 12.65 C
917 16-08-2018 04:20:00 14.1 C 91 % 12.65 C
918 16-08-2018 04:25:00 14.1 C 91 % 12.65 C
919 16-08-2018 04:30:00 14 C 91 % 12.56 C
920 16-08-2018 04:35:00 14 C 91 % 12.56 C
921 16-08-2018 04:40:00 13.9 C 91 % 12.46 C
922 16-08-2018 04:45:00 13.8 C 92 % 12.52 C
923 16-08-2018 04:50:00 13.8 C 92 % 12.52 C
924 16-08-2018 04:55:00 13.7 C 91 % 12.26 C
925 16-08-2018 05:00:00 13.7 C 91 % 12.26 C
Sensor: Nr:Datum:Temp:Feuchte:Taupunkt:
Aussen-T/F 926 16-08-2018 05:05:00 13.6 C 92 % 12.33 C
927 16-08-2018 05:10:00 13.6 C 92 % 12.33 C
928 16-08-2018 05:15:00 13.5 C 92 % 12.23 C
929 16-08-2018 05:20:00 13.4 C 92 % 12.13 C
930 16-08-2018 05:25:00 13.4 C 92 % 12.13 C
931 16-08-2018 05:30:00 13.3 C 92 % 12.03 C
932 16-08-2018 05:35:00 13.3 C 92 % 12.03 C
933 16-08-2018 05:40:00 13.2 C 92 % 11.93 C
934 16-08-2018 05:45:00 13.2 C 92 % 11.93 C
935 16-08-2018 05:50:00 13.2 C 92 % 11.93 C
936 16-08-2018 05:55:00 13.1 C 92 % 11.83 C
937 16-08-2018 06:00:00 13.1 C 92 % 11.83 C
938 16-08-2018 06:05:00 13.1 C 92 % 11.83 C
939 16-08-2018 06:10:00 13 C 92 % 11.73 C
940 16-08-2018 06:15:00 12.9 C 92 % 11.63 C
941 16-08-2018 06:20:00 12.9 C 92 % 11.63 C
942 16-08-2018 06:25:00 12.9 C 93 % 11.8 C
943 16-08-2018 06:30:00 12.8 C 92 % 11.53 C
944 16-08-2018 06:35:00 12.8 C 93 % 11.7 C
945 16-08-2018 06:40:00 12.8 C 93 % 11.7 C
946 16-08-2018 06:45:00 12.8 C 93 % 11.7 C
947 16-08-2018 06:50:00 12.8 C 93 % 11.7 C
948 16-08-2018 06:55:00 12.8 C 93 % 11.7 C
949 16-08-2018 07:00:00 12.8 C 93 % 11.7 C
950 16-08-2018 07:05:00 12.8 C 93 % 11.7 C
Sensor: Nr:Datum:Temp:Feuchte:Taupunkt:
Aussen-T/F 951 16-08-2018 07:10:00 12.8 C 93 % 11.7 C
952 16-08-2018 07:15:00 12.8 C 93 % 11.7 C
953 16-08-2018 07:20:00 12.9 C 93 % 11.8 C
954 16-08-2018 07:25:00 12.9 C 93 % 11.8 C
955 16-08-2018 07:30:00 12.9 C 93 % 11.8 C
956 16-08-2018 07:35:00 12.9 C 93 % 11.8 C
957 16-08-2018 07:40:00 12.9 C 93 % 11.8 C
958 16-08-2018 07:45:00 12.9 C 93 % 11.8 C
959 16-08-2018 07:50:00 13 C 94 % 12.06 C
960 16-08-2018 07:55:00 13 C 94 % 12.06 C
961 16-08-2018 08:00:00 13.1 C 94 % 12.16 C
962 16-08-2018 08:05:00 13.2 C 94 % 12.26 C
963 16-08-2018 08:10:00 13.2 C 94 % 12.26 C
964 16-08-2018 08:15:00 13.3 C 94 % 12.36 C
965 16-08-2018 08:20:00 13.3 C 94 % 12.36 C
966 16-08-2018 08:25:00 13.4 C 94 % 12.45 C
967 16-08-2018 08:30:00 13.4 C 94 % 12.45 C
968 16-08-2018 08:35:00 13.5 C 94 % 12.55 C
969 16-08-2018 08:40:00 13.6 C 94 % 12.65 C
970 16-08-2018 08:45:00 13.7 C 94 % 12.75 C
971 16-08-2018 08:50:00 13.7 C 94 % 12.75 C
972 16-08-2018 08:55:00 13.8 C 94 % 12.85 C
973 16-08-2018 09:00:00 13.9 C 94 % 12.95 C
974 16-08-2018 09:05:00 13.9 C 94 % 12.95 C
975 16-08-2018 09:10:00 14.1 C 94 % 13.15 C
Sensor: Nr:Datum:Temp:Feuchte:Taupunkt:
Aussen-T/F 976 16-08-2018 09:15:00 14.2 C 94 % 13.25 C
977 16-08-2018 09:20:00 14.3 C 94 % 13.35 C
978 16-08-2018 09:25:00 14.3 C 94 % 13.35 C
979 16-08-2018 09:30:00 14.4 C 94 % 13.45 C
980 16-08-2018 09:35:00 14.6 C 94 % 13.65 C
981 16-08-2018 09:40:00 14.7 C 94 % 13.74 C
982 16-08-2018 09:45:00 14.8 C 94 % 13.84 C
983 16-08-2018 09:50:00 14.9 C 95 % 14.11 C
984 16-08-2018 09:55:00 15.1 C 94 % 14.14 C
985 16-08-2018 10:00:00 15.3 C 95 % 14.5 C
986 16-08-2018 10:05:00 15.4 C 95 % 14.6 C
987 16-08-2018 10:10:00 15.6 C 94 % 14.64 C
988 16-08-2018 10:15:00 15.8 C 94 % 14.84 C
989 16-08-2018 10:20:00 15.9 C 94 % 14.94 C
990 16-08-2018 10:25:00 16.1 C 94 % 15.13 C
991 16-08-2018 10:30:00 16.3 C 94 % 15.33 C
992 16-08-2018 10:35:00 16.5 C 94 % 15.53 C
993 16-08-2018 10:40:00 16.7 C 93 % 15.56 C
994 16-08-2018 10:45:00 16.9 C 93 % 15.76 C
995 16-08-2018 10:50:00 17.1 C 92 % 15.79 C
996 16-08-2018 10:55:00 17.3 C 91 % 15.82 C
997 16-08-2018 11:00:00 17.6 C 89 % 15.77 C
998 16-08-2018 11:05:00 18 C 88 % 15.98 C
999 16-08-2018 11:10:00 18.3 C 87 % 16.1 C
1000 16-08-2018 11:15:00 18.6 C 85 % 16.03 C
Sensor: Nr:Datum:Temp:Feuchte:Taupunkt:
Aussen-T/F 1001 16-08-2018 11:20:00 19 C 84 % 16.24 C
1002 16-08-2018 11:25:00 19.4 C 84 % 16.63 C
1003 16-08-2018 11:30:00 19.6 C 80 % 16.06 C
1004 16-08-2018 11:35:00 19.9 C 80 % 16.35 C
1005 16-08-2018 11:40:00 20.2 C 77 % 16.04 C
1006 16-08-2018 11:45:00 20.6 C 75 % 16.01 C
1007 16-08-2018 11:50:00 21.1 C 73 % 16.07 C
1008 16-08-2018 11:55:00 21.4 C 73 % 16.36 C
1009 16-08-2018 12:00:00 21.6 C 71 % 16.12 C
1010 16-08-2018 12:05:00 21.8 C 71 % 16.31 C
1011 16-08-2018 12:10:00 22.1 C 69 % 16.15 C
1012 16-08-2018 12:15:00 22.3 C 68 % 16.11 C
1013 16-08-2018 12:20:00 22.7 C 66 % 16.02 C
1014 16-08-2018 12:25:00 23 C 65 % 16.07 C
1015 16-08-2018 12:30:00 23.2 C 63 % 15.77 C
1016 16-08-2018 12:35:00 23.4 C 64 % 16.2 C
1017 16-08-2018 12:40:00 23.6 C 63 % 16.14 C
1018 16-08-2018 12:45:00 23.7 C 60 % 15.48 C
1019 16-08-2018 12:50:00 23.9 C 60 % 15.66 C
1020 16-08-2018 12:55:00 24.1 C 58 % 15.32 C
1021 16-08-2018 13:00:00 24.3 C 60 % 16.04 C
1022 16-08-2018 13:05:00 24.5 C 58 % 15.7 C
1023 16-08-2018 13:10:00 24.6 C 57 % 15.52 C
1024 16-08-2018 13:15:00 24.7 C 60 % 16.41 C
1025 16-08-2018 13:20:00 24.9 C 59 % 16.34 C
Sensor: Nr:Datum:Temp:Feuchte:Taupunkt:
Aussen-T/F 1026 16-08-2018 13:25:00 24.9 C 57 % 15.8 C
1027 16-08-2018 13:30:00 25.1 C 57 % 15.98 C
1028 16-08-2018 13:35:00 25.2 C 55 % 15.52 C
1029 16-08-2018 13:40:00 25.4 C 55 % 15.7 C
1030 16-08-2018 13:45:00 25.6 C 52 % 15.02 C
1031 16-08-2018 13:50:00 25.7 C 52 % 15.11 C
1032 16-08-2018 13:55:00 25.9 C 51 % 14.99 C
1033 16-08-2018 14:00:00 26 C 53 % 15.68 C
1034 16-08-2018 14:05:00 26.1 C 51 % 15.17 C
1035 16-08-2018 14:10:00 26.2 C 50 % 14.96 C
1036 16-08-2018 14:15:00 26.4 C 49 % 14.83 C
1037 16-08-2018 14:20:00 26.6 C 51 % 15.63 C
1038 16-08-2018 14:25:00 26.8 C 49 % 15.19 C
1039 16-08-2018 14:30:00 27 C 49 % 15.38 C
1040 16-08-2018 14:35:00 27.2 C 48 % 15.24 C
1041 16-08-2018 14:40:00 27.3 C 48 % 15.33 C
1042 16-08-2018 14:45:00 27.4 C 48 % 15.42 C
1043 16-08-2018 14:50:00 27.7 C 48 % 15.69 C
1044 16-08-2018 14:55:00 27.8 C 47 % 15.45 C
1045 16-08-2018 15:00:00 27.8 C 47 % 15.45 C
1046 16-08-2018 15:05:00 28.1 C 44 % 14.7 C
1047 16-08-2018 15:10:00 28.2 C 44 % 14.79 C
1048 16-08-2018 15:15:00 28.4 C 43 % 14.62 C
1049 16-08-2018 15:20:00 28.5 C 45 % 15.41 C
1050 16-08-2018 15:25:00 28.7 C 44 % 15.24 C
Sensor: Nr:Datum:Temp:Feuchte:Taupunkt:
Aussen-T/F 1051 16-08-2018 15:30:00 28.9 C 42 % 14.7 C
1052 16-08-2018 15:35:00 29.2 C 44 % 15.69 C
1053 16-08-2018 15:40:00 29.3 C 41 % 14.68 C
1054 16-08-2018 15:45:00 29.3 C 43 % 15.42 C
1055 16-08-2018 15:50:00 29.4 C 40 % 14.39 C
1056 16-08-2018 15:55:00 29.6 C 43 % 15.69 C
1057 16-08-2018 16:00:00 29.9 C 41 % 15.22 C
1058 16-08-2018 16:05:00 30.2 C 39 % 14.71 C
1059 16-08-2018 16:10:00 30.5 C 39 % 14.98 C
1060 16-08-2018 16:15:00 30.7 C 38 % 14.75 C
1061 16-08-2018 16:20:00 30.7 C 38 % 14.75 C
1062 16-08-2018 16:25:00 30.8 C 37 % 14.43 C
1063 16-08-2018 16:30:00 31 C 36 % 14.18 C
1064 16-08-2018 16:35:00 31.1 C 36 % 14.27 C
1065 16-08-2018 16:40:00 31.3 C 39 % 15.69 C
1066 16-08-2018 16:45:00 31.3 C 36 % 14.44 C
1067 16-08-2018 16:50:00 31.4 C 36 % 14.53 C
1068 16-08-2018 16:55:00 31.7 C 35 % 14.36 C
1069 16-08-2018 17:00:00 31.7 C 34 % 13.91 C
1070 16-08-2018 17:05:00 31.8 C 33 % 13.54 C
1071 16-08-2018 17:10:00 31.8 C 35 % 14.45 C
1072 16-08-2018 17:15:00 31.9 C 34 % 14.09 C
1073 16-08-2018 17:20:00 32.1 C 33 % 13.8 C
1074 16-08-2018 17:25:00 32.2 C 34 % 14.35 C
1075 16-08-2018 17:30:00 32.3 C 34 % 14.43 C
Sensor: Nr:Datum:Temp:Feuchte:Taupunkt:
Aussen-T/F 1076 16-08-2018 17:35:00 32.4 C 33 % 14.06 C
1077 16-08-2018 17:40:00 32.6 C 34 % 14.7 C
1078 16-08-2018 17:45:00 32.6 C 33 % 14.23 C
1079 16-08-2018 17:50:00 32.6 C 33 % 14.23 C
1080 16-08-2018 17:55:00 32.7 C 35 % 15.23 C
1081 16-08-2018 18:00:00 32.7 C 36 % 15.67 C
1082 16-08-2018 18:05:00 32.7 C 33 % 14.32 C
1083 16-08-2018 18:10:00 32.8 C 33 % 14.41 C
1084 16-08-2018 18:15:00 32.8 C 38 % 16.61 C
1085 16-08-2018 18:20:00 32.8 C 33 % 14.41 C
1086 16-08-2018 18:25:00 32.7 C 33 % 14.32 C
1087 16-08-2018 18:30:00 32.7 C 32 % 13.85 C
1088 16-08-2018 18:35:00 32.7 C 34 % 14.78 C
1089 16-08-2018 18:40:00 32.8 C 38 % 16.61 C
1090 16-08-2018 18:45:00 32.9 C 39 % 17.11 C
1091 16-08-2018 18:50:00 32.9 C 41 % 17.9 C
1092 16-08-2018 18:55:00 32.8 C 37 % 16.19 C
1093 16-08-2018 19:00:00 32.8 C 40 % 17.42 C
1094 16-08-2018 19:05:00 32.7 C 40 % 17.33 C
1095 16-08-2018 19:10:00 32.5 C 42 % 17.92 C
1096 16-08-2018 19:15:00 32.2 C 42 % 17.65 C
1097 16-08-2018 19:20:00 31.8 C 43 % 17.67 C
1098 16-08-2018 19:25:00 31.3 C 44 % 17.58 C
1099 16-08-2018 19:30:00 30.8 C 45 % 17.49 C
1100 16-08-2018 19:35:00 30.3 C 46 % 17.39 C
Sensor: Nr:Datum:Temp:Feuchte:Taupunkt:
Aussen-T/F 1101 16-08-2018 19:40:00 29.8 C 46 % 16.93 C
1102 16-08-2018 19:45:00 29.3 C 48 % 17.15 C
1103 16-08-2018 19:50:00 28.8 C 48 % 16.69 C
1104 16-08-2018 19:55:00 28.5 C 49 % 16.75 C
1105 16-08-2018 20:00:00 28.2 C 50 % 16.79 C
1106 16-08-2018 20:05:00 27.9 C 51 % 16.83 C
1107 16-08-2018 20:10:00 27.6 C 52 % 16.86 C
1108 16-08-2018 20:15:00 27.2 C 52 % 16.49 C
1109 16-08-2018 20:20:00 26.8 C 53 % 16.42 C
1110 16-08-2018 20:25:00 26.4 C 54 % 16.34 C
1111 16-08-2018 20:30:00 26 C 55 % 16.26 C
1112 16-08-2018 20:35:00 25.6 C 55 % 15.89 C
1113 16-08-2018 20:40:00 25.2 C 56 % 15.8 C
1114 16-08-2018 20:45:00 24.8 C 57 % 15.7 C
1115 16-08-2018 20:50:00 24.6 C 58 % 15.79 C
1116 16-08-2018 20:55:00 24.2 C 57 % 15.14 C
1117 16-08-2018 21:00:00 23.9 C 59 % 15.4 C
1118 16-08-2018 21:05:00 23.7 C 60 % 15.48 C
1119 16-08-2018 21:10:00 23.4 C 60 % 15.19 C
1120 16-08-2018 21:15:00 23.2 C 61 % 15.26 C
1121 16-08-2018 21:20:00 22.9 C 61 % 14.98 C
1122 16-08-2018 21:25:00 22.7 C 63 % 15.3 C
1123 16-08-2018 21:30:00 22.4 C 64 % 15.26 C
1124 16-08-2018 21:35:00 22.2 C 65 % 15.31 C
1125 16-08-2018 21:40:00 21.9 C 65 % 15.02 C
Sensor: Nr:Datum:Temp:Feuchte:Taupunkt:
Aussen-T/F 1126 16-08-2018 21:45:00 21.7 C 65 % 14.84 C
1127 16-08-2018 21:50:00 21.4 C 66 % 14.79 C
1128 16-08-2018 21:55:00 21.2 C 67 % 14.83 C
1129 16-08-2018 22:00:00 21 C 68 % 14.87 C
1130 16-08-2018 22:05:00 20.8 C 69 % 14.91 C
1131 16-08-2018 22:10:00 20.7 C 67 % 14.36 C
1132 16-08-2018 22:15:00 20.6 C 67 % 14.26 C
1133 16-08-2018 22:20:00 20.6 C 69 % 14.71 C
1134 16-08-2018 22:25:00 20.6 C 67 % 14.26 C
1135 16-08-2018 22:30:00 20.7 C 67 % 14.36 C
1136 16-08-2018 22:35:00 20.8 C 69 % 14.91 C
1137 16-08-2018 22:40:00 20.8 C 70 % 15.13 C
1138 16-08-2018 22:45:00 20.8 C 70 % 15.13 C
1139 16-08-2018 22:50:00 20.8 C 71 % 15.35 C
1140 16-08-2018 22:55:00 20.8 C 71 % 15.35 C
1141 16-08-2018 23:00:00 20.8 C 73 % 15.78 C
1142 16-08-2018 23:05:00 20.7 C 73 % 15.69 C
1143 16-08-2018 23:10:00 20.7 C 74 % 15.9 C
1144 16-08-2018 23:15:00 20.6 C 75 % 16.01 C
1145 16-08-2018 23:20:00 20.4 C 75 % 15.82 C
1146 16-08-2018 23:25:00 20.3 C 75 % 15.72 C
1147 16-08-2018 23:30:00 20.2 C 76 % 15.83 C
1148 16-08-2018 23:35:00 20 C 76 % 15.64 C
1149 16-08-2018 23:40:00 19.8 C 77 % 15.65 C
1150 16-08-2018 23:45:00 19.7 C 78 % 15.76 C
Sensor: Nr:Datum:Temp:Feuchte:Taupunkt:
Aussen-T/F 1151 16-08-2018 23:50:00 19.6 C 78 % 15.66 C
1152 16-08-2018 23:55:00 19.4 C 78 % 15.47 C
1153 17-08-2018 00:00:00 19.3 C 78 % 15.37 C
1154 17-08-2018 00:05:00 19.3 C 79 % 15.57 C
1155 17-08-2018 00:10:00 19.2 C 78 % 15.27 C
1156 17-08-2018 00:15:00 19.2 C 79 % 15.47 C
1157 17-08-2018 00:20:00 19.2 C 79 % 15.47 C
1158 17-08-2018 00:25:00 19 C 79 % 15.28 C
1159 17-08-2018 00:30:00 18.9 C 79 % 15.18 C
1160 17-08-2018 00:35:00 18.7 C 80 % 15.18 C
1161 17-08-2018 00:40:00 18.6 C 81 % 15.28 C
1162 17-08-2018 00:45:00 18.4 C 81 % 15.08 C
1163 17-08-2018 00:50:00 18.4 C 82 % 15.27 C
1164 17-08-2018 00:55:00 18.2 C 82 % 15.08 C
1165 17-08-2018 01:00:00 18.1 C 82 % 14.98 C
1166 17-08-2018 01:05:00 17.9 C 82 % 14.78 C
1167 17-08-2018 01:10:00 17.8 C 83 % 14.88 C
1168 17-08-2018 01:15:00 17.8 C 83 % 14.88 C
1169 17-08-2018 01:20:00 17.7 C 83 % 14.78 C
1170 17-08-2018 01:25:00 17.7 C 84 % 14.96 C
1171 17-08-2018 01:30:00 17.6 C 84 % 14.87 C
1172 17-08-2018 01:35:00 17.6 C 84 % 14.87 C
1173 17-08-2018 01:40:00 17.5 C 84 % 14.77 C
1174 17-08-2018 01:45:00 17.4 C 84 % 14.67 C
1175 17-08-2018 01:50:00 17.4 C 84 % 14.67 C
Sensor: Nr:Datum:Temp:Feuchte:Taupunkt:
Aussen-T/F 1176 17-08-2018 01:55:00 17.3 C 85 % 14.76 C
1177 17-08-2018 02:00:00 17.3 C 85 % 14.76 C
1178 17-08-2018 02:05:00 17.3 C 85 % 14.76 C
1179 17-08-2018 02:10:00 17.2 C 85 % 14.66 C
1180 17-08-2018 02:15:00 17.2 C 85 % 14.66 C
1181 17-08-2018 02:20:00 17.1 C 85 % 14.56 C
1182 17-08-2018 02:25:00 17 C 85 % 14.46 C
1183 17-08-2018 02:30:00 16.9 C 86 % 14.54 C
1184 17-08-2018 02:35:00 16.8 C 86 % 14.45 C
1185 17-08-2018 02:40:00 16.8 C 86 % 14.45 C
1186 17-08-2018 02:45:00 16.7 C 86 % 14.35 C
1187 17-08-2018 02:50:00 16.6 C 86 % 14.25 C
1188 17-08-2018 02:55:00 16.6 C 86 % 14.25 C
1189 17-08-2018 03:00:00 16.5 C 87 % 14.33 C
1190 17-08-2018 03:05:00 16.5 C 87 % 14.33 C
1191 17-08-2018 03:10:00 16.4 C 87 % 14.23 C
1192 17-08-2018 03:15:00 16.3 C 87 % 14.13 C
1193 17-08-2018 03:20:00 16.3 C 87 % 14.13 C
1194 17-08-2018 03:25:00 16.2 C 87 % 14.03 C
1195 17-08-2018 03:30:00 16.2 C 87 % 14.03 C
1196 17-08-2018 03:35:00 16.2 C 88 % 14.21 C
1197 17-08-2018 03:40:00 16.1 C 88 % 14.11 C
1198 17-08-2018 03:45:00 16.1 C 88 % 14.11 C
1199 17-08-2018 03:50:00 16.1 C 88 % 14.11 C
1200 17-08-2018 03:55:00 16 C 88 % 14.01 C
Sensor: Nr:Datum:Temp:Feuchte:Taupunkt:
Aussen-T/F 1201 17-08-2018 04:00:00 16 C 88 % 14.01 C
1202 17-08-2018 04:05:00 16.1 C 88 % 14.11 C
1203 17-08-2018 04:10:00 16 C 88 % 14.01 C
1204 17-08-2018 04:15:00 15.9 C 88 % 13.92 C
1205 17-08-2018 04:20:00 15.9 C 88 % 13.92 C
1206 17-08-2018 04:25:00 15.9 C 88 % 13.92 C
1207 17-08-2018 04:30:00 15.9 C 88 % 13.92 C
1208 17-08-2018 04:35:00 15.8 C 88 % 13.82 C
1209 17-08-2018 04:40:00 15.9 C 89 % 14.09 C
1210 17-08-2018 04:45:00 15.9 C 89 % 14.09 C
1211 17-08-2018 04:50:00 15.9 C 88 % 13.92 C
1212 17-08-2018 04:55:00 15.9 C 88 % 13.92 C
1213 17-08-2018 05:00:00 15.8 C 88 % 13.82 C
1214 17-08-2018 05:05:00 15.8 C 89 % 13.99 C
1215 17-08-2018 05:10:00 15.8 C 89 % 13.99 C
1216 17-08-2018 05:15:00 15.8 C 89 % 13.99 C
1217 17-08-2018 05:20:00 15.8 C 89 % 13.99 C
1218 17-08-2018 05:25:00 15.8 C 89 % 13.99 C
1219 17-08-2018 05:30:00 15.9 C 90 % 14.26 C
1220 17-08-2018 05:35:00 16.1 C 90 % 14.46 C
1221 17-08-2018 05:40:00 16.2 C 90 % 14.56 C
1222 17-08-2018 05:45:00 16.3 C 89 % 14.48 C
1223 17-08-2018 05:50:00 16.4 C 89 % 14.58 C
1224 17-08-2018 05:55:00 16.6 C 89 % 14.78 C
1225 17-08-2018 06:00:00 16.8 C 88 % 14.8 C
Sensor: Nr:Datum:Temp:Feuchte:Taupunkt:
Aussen-T/F 1226 17-08-2018 06:05:00 16.9 C 87 % 14.72 C
1227 17-08-2018 06:10:00 17 C 87 % 14.82 C
1228 17-08-2018 06:15:00 17.1 C 87 % 14.92 C
1229 17-08-2018 06:20:00 17.1 C 87 % 14.92 C
1230 17-08-2018 06:25:00 17.1 C 86 % 14.74 C
1231 17-08-2018 06:30:00 17.1 C 86 % 14.74 C
1232 17-08-2018 06:35:00 17.1 C 86 % 14.74 C
1233 17-08-2018 06:40:00 17.1 C 87 % 14.92 C
1234 17-08-2018 06:45:00 17.1 C 87 % 14.92 C
1235 17-08-2018 06:50:00 17.2 C 87 % 15.02 C
1236 17-08-2018 06:55:00 17.3 C 86 % 14.94 C
1237 17-08-2018 07:00:00 17.4 C 86 % 15.03 C
1238 17-08-2018 07:05:00 17.4 C 86 % 15.03 C
1239 17-08-2018 07:10:00 17.6 C 86 % 15.23 C
1240 17-08-2018 07:15:00 17.6 C 86 % 15.23 C
1241 17-08-2018 07:20:00 17.6 C 86 % 15.23 C
1242 17-08-2018 07:25:00 17.6 C 86 % 15.23 C
1243 17-08-2018 07:30:00 17.6 C 86 % 15.23 C
1244 17-08-2018 07:35:00 17.7 C 86 % 15.33 C
1245 17-08-2018 07:40:00 17.7 C 86 % 15.33 C
1246 17-08-2018 07:45:00 17.8 C 86 % 15.43 C
1247 17-08-2018 07:50:00 17.8 C 86 % 15.43 C
1248 17-08-2018 07:55:00 17.8 C 86 % 15.43 C
1249 17-08-2018 08:00:00 17.9 C 86 % 15.53 C
1250 17-08-2018 08:05:00 17.9 C 86 % 15.53 C
Sensor: Nr:Datum:Temp:Feuchte:Taupunkt:
Aussen-T/F 1251 17-08-2018 08:10:00 18 C 86 % 15.62 C
1252 17-08-2018 08:15:00 18 C 85 % 15.44 C
1253 17-08-2018 08:20:00 18.1 C 85 % 15.54 C
1254 17-08-2018 08:25:00 18.1 C 85 % 15.54 C
1255 17-08-2018 08:30:00 18.1 C 85 % 15.54 C
1256 17-08-2018 08:35:00 18.1 C 85 % 15.54 C
1257 17-08-2018 08:40:00 18.2 C 85 % 15.64 C
1258 17-08-2018 08:45:00 18.3 C 84 % 15.55 C
1259 17-08-2018 08:50:00 18.4 C 84 % 15.65 C
1260 17-08-2018 08:55:00 18.6 C 84 % 15.84 C
1261 17-08-2018 09:00:00 18.7 C 83 % 15.75 C
1262 17-08-2018 09:05:00 18.8 C 83 % 15.85 C
1263 17-08-2018 09:10:00 18.9 C 83 % 15.95 C
1264 17-08-2018 09:15:00 19.1 C 82 % 15.96 C
1265 17-08-2018 09:20:00 19.2 C 82 % 16.05 C
1266 17-08-2018 09:25:00 19.2 C 82 % 16.05 C
1267 17-08-2018 09:30:00 19.3 C 81 % 15.96 C
1268 17-08-2018 09:35:00 19.3 C 81 % 15.96 C
1269 17-08-2018 09:40:00 19.4 C 81 % 16.06 C
1270 17-08-2018 09:45:00 19.4 C 80 % 15.86 C
1271 17-08-2018 09:50:00 19.6 C 79 % 15.86 C
1272 17-08-2018 09:55:00 19.7 C 79 % 15.96 C
1273 17-08-2018 10:00:00 19.8 C 78 % 15.85 C
1274 17-08-2018 10:05:00 20 C 78 % 16.05 C
1275 17-08-2018 10:10:00 20.2 C 77 % 16.04 C
Sensor: Nr:Datum:Temp:Feuchte:Taupunkt:
Aussen-T/F 1276 17-08-2018 10:15:00 20.2 C 77 % 16.04 C
1277 17-08-2018 10:20:00 20.3 C 77 % 16.14 C
1278 17-08-2018 10:25:00 20.3 C 77 % 16.14 C
1279 17-08-2018 10:30:00 20.2 C 77 % 16.04 C
1280 17-08-2018 10:35:00 20.2 C 77 % 16.04 C
1281 17-08-2018 10:40:00 20.3 C 78 % 16.34 C
1282 17-08-2018 10:45:00 20.6 C 76 % 16.22 C
1283 17-08-2018 10:50:00 20.8 C 75 % 16.21 C
1284 17-08-2018 10:55:00 21.1 C 74 % 16.29 C
1285 17-08-2018 11:00:00 21.2 C 74 % 16.38 C
1286 17-08-2018 11:05:00 21.3 C 73 % 16.26 C
1287 17-08-2018 11:10:00 21.4 C 73 % 16.36 C
1288 17-08-2018 11:15:00 21.5 C 72 % 16.24 C
1289 17-08-2018 11:20:00 21.7 C 72 % 16.43 C
1290 17-08-2018 11:25:00 21.8 C 72 % 16.53 C
1291 17-08-2018 11:30:00 21.9 C 72 % 16.62 C
1292 17-08-2018 11:35:00 21.9 C 71 % 16.4 C
1293 17-08-2018 11:40:00 21.9 C 72 % 16.62 C
1294 17-08-2018 11:45:00 22.1 C 71 % 16.6 C
1295 17-08-2018 11:50:00 22.2 C 71 % 16.69 C
1296 17-08-2018 11:55:00 22.4 C 70 % 16.66 C
1297 17-08-2018 12:00:00 22.7 C 69 % 16.72 C
1298 17-08-2018 12:05:00 22.9 C 69 % 16.91 C
1299 17-08-2018 12:10:00 23.2 C 68 % 16.97 C
1300 17-08-2018 12:15:00 23.3 C 67 % 16.83 C
Sensor: Nr:Datum:Temp:Feuchte:Taupunkt:
Aussen-T/F 1301 17-08-2018 12:20:00 23.5 C 66 % 16.78 C
1302 17-08-2018 12:25:00 23.6 C 68 % 17.35 C
1303 17-08-2018 12:30:00 23.7 C 66 % 16.97 C
1304 17-08-2018 12:35:00 23.7 C 66 % 16.97 C
1305 17-08-2018 12:40:00 23.7 C 65 % 16.73 C
1306 17-08-2018 12:45:00 23.6 C 65 % 16.64 C
1307 17-08-2018 12:50:00 23.6 C 66 % 16.88 C
1308 17-08-2018 12:55:00 23.6 C 66 % 16.88 C
1309 17-08-2018 13:00:00 23.6 C 64 % 16.39 C
1310 17-08-2018 13:05:00 23.6 C 65 % 16.64 C
1311 17-08-2018 13:10:00 23.6 C 65 % 16.64 C
1312 17-08-2018 13:15:00 23.6 C 64 % 16.39 C
1313 17-08-2018 13:20:00 23.7 C 65 % 16.73 C
1314 17-08-2018 13:25:00 23.7 C 65 % 16.73 C
1315 17-08-2018 13:30:00 23.7 C 66 % 16.97 C
1316 17-08-2018 13:35:00 23.6 C 67 % 17.11 C
1317 17-08-2018 13:40:00 23.6 C 68 % 17.35 C
1318 17-08-2018 13:45:00 23.7 C 68 % 17.44 C
1319 17-08-2018 13:50:00 23.8 C 68 % 17.54 C
1320 17-08-2018 13:55:00 23.8 C 67 % 17.3 C
1321 17-08-2018 14:00:00 23.9 C 66 % 17.16 C
1322 17-08-2018 14:05:00 24.1 C 67 % 17.59 C
1323 17-08-2018 14:10:00 24.1 C 66 % 17.35 C
1324 17-08-2018 14:15:00 24.1 C 65 % 17.11 C
1325 17-08-2018 14:20:00 24.1 C 66 % 17.35 C
Sensor: Nr:Datum:Temp:Feuchte:Taupunkt:
Aussen-T/F 1326 17-08-2018 14:25:00 24.1 C 65 % 17.11 C
1327 17-08-2018 14:30:00 23.9 C 65 % 16.92 C
1328 17-08-2018 14:35:00 23.8 C 66 % 17.07 C
1329 17-08-2018 14:40:00 23.9 C 66 % 17.16 C
1330 17-08-2018 14:45:00 23.9 C 65 % 16.92 C
1331 17-08-2018 14:50:00 23.8 C 65 % 16.83 C
1332 17-08-2018 14:55:00 23.6 C 66 % 16.88 C
1333 17-08-2018 15:00:00 23.6 C 67 % 17.11 C
1334 17-08-2018 15:05:00 23.6 C 66 % 16.88 C
1335 17-08-2018 15:10:00 23.7 C 66 % 16.97 C
1336 17-08-2018 15:15:00 23.8 C 65 % 16.83 C
1337 17-08-2018 15:20:00 23.8 C 64 % 16.58 C
1338 17-08-2018 15:25:00 23.6 C 65 % 16.64 C
1339 17-08-2018 15:30:00 23.6 C 65 % 16.64 C
1340 17-08-2018 15:35:00 23.6 C 65 % 16.64 C
1341 17-08-2018 15:40:00 23.6 C 64 % 16.39 C
1342 17-08-2018 15:45:00 23.7 C 64 % 16.49 C
1343 17-08-2018 15:50:00 23.7 C 64 % 16.49 C
1344 17-08-2018 15:55:00 23.8 C 65 % 16.83 C
1345 17-08-2018 16:00:00 24.1 C 64 % 16.86 C
1346 17-08-2018 16:05:00 24.2 C 63 % 16.71 C
1347 17-08-2018 16:10:00 24.2 C 63 % 16.71 C
1348 17-08-2018 16:15:00 23.9 C 62 % 16.18 C
1349 17-08-2018 16:20:00 23.6 C 64 % 16.39 C
1350 17-08-2018 16:25:00 23.2 C 65 % 16.26 C
Sensor: Nr:Datum:Temp:Feuchte:Taupunkt:
Aussen-T/F 1351 17-08-2018 16:30:00 23.1 C 65 % 16.16 C
1352 17-08-2018 16:35:00 22.9 C 66 % 16.21 C
1353 17-08-2018 16:40:00 22.8 C 66 % 16.12 C
1354 17-08-2018 16:45:00 22.7 C 66 % 16.02 C
1355 17-08-2018 16:50:00 22.6 C 66 % 15.93 C
1356 17-08-2018 16:55:00 22.4 C 66 % 15.74 C
1357 17-08-2018 17:00:00 22.3 C 68 % 16.11 C
1358 17-08-2018 17:05:00 22.3 C 69 % 16.34 C
1359 17-08-2018 17:10:00 22.3 C 68 % 16.11 C
1360 17-08-2018 17:15:00 22.4 C 69 % 16.43 C
1361 17-08-2018 17:20:00 22.8 C 67 % 16.35 C
1362 17-08-2018 17:25:00 23.1 C 65 % 16.16 C
1363 17-08-2018 17:30:00 23.1 C 65 % 16.16 C
1364 17-08-2018 17:35:00 22.9 C 66 % 16.21 C
1365 17-08-2018 17:40:00 22.7 C 67 % 16.26 C
1366 17-08-2018 17:45:00 22.4 C 68 % 16.2 C
1367 17-08-2018 17:50:00 22.3 C 68 % 16.11 C
1368 17-08-2018 17:55:00 22.3 C 69 % 16.34 C
1369 17-08-2018 18:00:00 22.3 C 69 % 16.34 C
1370 17-08-2018 18:05:00 22.4 C 69 % 16.43 C
1371 17-08-2018 18:10:00 22.4 C 69 % 16.43 C
1372 17-08-2018 18:15:00 22.4 C 68 % 16.2 C
1373 17-08-2018 18:20:00 22.4 C 68 % 16.2 C
1374 17-08-2018 18:25:00 22.4 C 69 % 16.43 C
1375 17-08-2018 18:30:00 22.4 C 68 % 16.2 C
Sensor: Nr:Datum:Temp:Feuchte:Taupunkt:
Aussen-T/F 1376 17-08-2018 18:35:00 22.2 C 68 % 16.01 C
1377 17-08-2018 18:40:00 21.9 C 69 % 15.96 C
1378 17-08-2018 18:45:00 21.7 C 69 % 15.77 C
1379 17-08-2018 18:50:00 21.7 C 70 % 15.99 C
1380 17-08-2018 18:55:00 21.7 C 70 % 15.99 C
1381 17-08-2018 19:00:00 21.7 C 70 % 15.99 C
1382 17-08-2018 19:05:00 21.7 C 69 % 15.77 C
1383 17-08-2018 19:10:00 21.7 C 69 % 15.77 C
1384 17-08-2018 19:15:00 21.7 C 69 % 15.77 C
1385 17-08-2018 19:20:00 21.6 C 69 % 15.67 C
1386 17-08-2018 19:25:00 21.6 C 69 % 15.67 C
1387 17-08-2018 19:30:00 21.6 C 69 % 15.67 C
1388 17-08-2018 19:35:00 21.7 C 68 % 15.54 C
1389 17-08-2018 19:40:00 21.7 C 68 % 15.54 C
1390 17-08-2018 19:45:00 21.7 C 68 % 15.54 C
1391 17-08-2018 19:50:00 21.7 C 68 % 15.54 C
1392 17-08-2018 19:55:00 21.7 C 68 % 15.54 C
1393 17-08-2018 20:00:00 21.7 C 68 % 15.54 C
1394 17-08-2018 20:05:00 21.6 C 68 % 15.44 C
1395 17-08-2018 20:10:00 21.4 C 69 % 15.48 C
1396 17-08-2018 20:15:00 21.3 C 69 % 15.38 C
1397 17-08-2018 20:20:00 21.2 C 68 % 15.06 C
1398 17-08-2018 20:25:00 21.2 C 69 % 15.29 C
1399 17-08-2018 20:30:00 21.1 C 68 % 14.97 C
1400 17-08-2018 20:35:00 20.9 C 67 % 14.55 C
Sensor: Nr:Datum:Temp:Feuchte:Taupunkt:
Aussen-T/F 1401 17-08-2018 20:40:00 20.8 C 68 % 14.68 C
1402 17-08-2018 20:45:00 20.6 C 70 % 14.94 C
1403 17-08-2018 20:50:00 20.4 C 70 % 14.75 C
1404 17-08-2018 20:55:00 20.2 C 70 % 14.56 C
1405 17-08-2018 21:00:00 20 C 72 % 14.8 C
1406 17-08-2018 21:05:00 19.7 C 73 % 14.73 C
1407 17-08-2018 21:10:00 19.4 C 74 % 14.65 C
1408 17-08-2018 21:15:00 19.1 C 75 % 14.57 C
1409 17-08-2018 21:20:00 18.9 C 76 % 14.58 C
1410 17-08-2018 21:25:00 18.7 C 77 % 14.59 C
1411 17-08-2018 21:30:00 18.6 C 77 % 14.49 C
1412 17-08-2018 21:35:00 18.4 C 78 % 14.5 C
1413 17-08-2018 21:40:00 18.3 C 78 % 14.4 C
1414 17-08-2018 21:45:00 18.2 C 78 % 14.3 C
1415 17-08-2018 21:50:00 18.1 C 79 % 14.4 C
1416 17-08-2018 21:55:00 17.9 C 79 % 14.21 C
1417 17-08-2018 22:00:00 17.9 C 79 % 14.21 C
1418 17-08-2018 22:05:00 17.8 C 79 % 14.11 C
1419 17-08-2018 22:10:00 17.7 C 79 % 14.01 C
1420 17-08-2018 22:15:00 17.7 C 80 % 14.21 C
1421 17-08-2018 22:20:00 17.6 C 80 % 14.11 C
1422 17-08-2018 22:25:00 17.5 C 80 % 14.01 C
1423 17-08-2018 22:30:00 17.4 C 80 % 13.92 C
1424 17-08-2018 22:35:00 17.4 C 80 % 13.92 C
1425 17-08-2018 22:40:00 17.3 C 80 % 13.82 C
Sensor: Nr:Datum:Temp:Feuchte:Taupunkt:
Aussen-T/F 1426 17-08-2018 22:45:00 17.3 C 80 % 13.82 C
1427 17-08-2018 22:50:00 17.2 C 80 % 13.72 C
1428 17-08-2018 22:55:00 17.1 C 80 % 13.62 C
1429 17-08-2018 23:00:00 17.1 C 80 % 13.62 C
1430 17-08-2018 23:05:00 17 C 80 % 13.53 C
1431 17-08-2018 23:10:00 16.9 C 80 % 13.43 C
1432 17-08-2018 23:15:00 16.9 C 80 % 13.43 C
1433 17-08-2018 23:20:00 16.8 C 80 % 13.33 C
1434 17-08-2018 23:25:00 16.7 C 81 % 13.43 C
1435 17-08-2018 23:30:00 16.7 C 81 % 13.43 C
1436 17-08-2018 23:35:00 16.5 C 81 % 13.23 C
1437 17-08-2018 23:40:00 16.4 C 82 % 13.32 C
1438 17-08-2018 23:45:00 16.3 C 82 % 13.22 C
1439 17-08-2018 23:50:00 16.3 C 82 % 13.22 C
1440 17-08-2018 23:55:00 16.2 C 82 % 13.13 C

Legende:
   Min
   Max


Maximal/Minimal-Werte vom 13.08.2018 - 17.08.2018

Sensor Min Max Avg
Temp
(Aussen-T/F)
12.8 °C
16-08-2018  06:30:00
32.9 °C
16-08-2018  18:45:00
19.22 °C
Feuchte
(Aussen-T/F)
32 %
16-08-2018  18:30:00
95 %
13-08-2018  11:15:00
78.75 %
Taupunkt
(Aussen-T/F)
10.2 C
13-08-2018  05:00:00
18.88 C
13-08-2018  14:20:00
15.06 C

Die Daten stammen von einer Davis Vantage Pro 2 Wetter-Station und werden unter Linux mit der Software wview2wettercgi und aufbereitet. Alle Angaben erfolgen ohne Gewähr für ihre Vollständigkeit oder Richtigkeit.
Kontakt: Rainer Krienke krienke@uni-koblenz.de . Meine Webseiten an der Uni Koblenz oder privat.
Version: $Revision: 0.78 $